Time,TemperatureF,DewpointF,PressureIn,WindDirection,WindDirectionDegrees,WindSpeedMPH,WindSpeedGustMPH,Humidity,HourlyPrecipIn,Conditions,Clouds,dailyrainin,SoftwareType,DateUTC
2013-09-06 00:18:00,69.4,63.3,29.79,NNW,338,0.0,0.0,80,0.00,,,0.00,WUHU216HW,2013-09-06 04:18:00,
2013-09-06 00:24:00,69.4,63.3,29.79,NNW,338,0.0,0.0,80,0.00,,,0.00,WUHU216HW,2013-09-06 04:24:00,
2013-09-06 00:29:00,69.4,63.3,29.79,NNW,338,0.0,0.0,81,0.00,,,0.00,WUHU216HW,2013-09-06 04:29:00,
2013-09-06 00:31:00,75.3,53.7,29.95,ENE,68,0.0,0.0,47,0.00,,,0.00,WUHU216HW,2013-09-06 04:31:00,
2013-09-06 00:32:00,75.3,53.7,29.96,ENE,68,0.0,0.0,47,0.00,,,0.00,WUHU216HW,2013-09-06 04:32:00,
2013-09-06 00:33:00,75.3,53.7,29.95,NNW,338,0.0,0.0,47,0.00,,,0.00,WUHU216HW,2013-09-06 04:33:00,
2013-09-06 00:34:00,69.0,63.0,29.80,NNW,338,0.0,0.0,81,0.00,,,0.00,WUHU216HW,2013-09-06 04:34:00,
2013-09-06 00:35:00,75.2,53.5,29.95,NNW,338,0.0,0.0,47,0.00,,,0.00,WUHU216HW,2013-09-06 04:35:00,
2013-09-06 00:36:00,75.2,53.5,29.95,NNW,338,0.0,0.0,47,0.00,,,0.00,WUHU216HW,2013-09-06 04:36:00,
2013-09-06 00:37:00,75.3,54.3,29.95,North,0,0.0,0.0,48,0.00,,,0.00,WUHU216HW,2013-09-06 04:37:00,
2013-09-06 00:38:00,75.3,54.3,29.95,North,0,0.0,0.0,48,0.00,,,0.00,WUHU216HW,2013-09-06 04:38:00,
2013-09-06 00:39:00,69.2,63.1,29.80,NNW,338,0.0,0.0,81,0.00,,,0.00,WUHU216HW,2013-09-06 04:39:00,
2013-09-06 00:44:00,69.0,63.3,29.80,NNW,338,0.0,0.0,81,0.00,,,0.00,WUHU216HW,2013-09-06 04:44:00,
2013-09-06 00:46:00,75.2,54.1,29.95,NNW,338,0.0,0.0,48,0.00,,,0.00,WUHU216HW,2013-09-06 04:46:00,
2013-09-06 00:48:00,75.2,54.1,29.95,NW,315,0.0,0.0,49,0.00,,,0.00,WUHU216HW,2013-09-06 04:48:00,
2013-09-06 00:49:00,68.9,63.1,29.81,NNW,338,0.0,0.0,82,0.00,,,0.00,WUHU216HW,2013-09-06 04:49:00,
2013-09-06 00:50:00,74.8,54.4,29.95,NNE,23,0.0,0.0,49,0.00,,,0.00,WUHU216HW,2013-09-06 04:50:00,
2013-09-06 00:51:00,74.8,54.4,29.95,NNE,23,0.0,0.0,49,0.00,,,0.00,WUHU216HW,2013-09-06 04:51:00,
2013-09-06 00:52:00,74.6,53.6,29.95,NW,315,0.0,0.0,48,0.00,,,0.00,WUHU216HW,2013-09-06 04:52:00,
2013-09-06 00:53:00,74.6,53.6,29.95,NW,315,0.0,0.0,48,0.00,,,0.00,WUHU216HW,2013-09-06 04:53:00,
2013-09-06 00:54:00,68.7,62.6,29.80,NNW,338,0.0,0.0,81,0.00,,,0.00,WUHU216HW,2013-09-06 04:54:00,
2013-09-06 00:55:00,74.4,54.0,29.95,NNW,338,0.0,0.0,49,0.00,,,0.00,WUHU216HW,2013-09-06 04:55:00,
2013-09-06 00:56:00,74.1,53.7,29.95,NNE,23,0.0,0.0,49,0.00,,,0.00,WUHU216HW,2013-09-06 04:56:00,
2013-09-06 00:57:00,74.1,53.7,29.95,NNE,23,0.0,0.0,49,0.00,,,0.00,WUHU216HW,2013-09-06 04:57:00,
2013-09-06 00:58:00,74.1,53.7,29.95,NNE,23,0.0,0.0,49,0.00,,,0.00,WUHU216HW,2013-09-06 04:58:00,
2013-09-06 01:00:00,68.5,62.8,29.81,NNW,338,0.0,0.0,82,0.00,,,0.00,WUHU216HW,2013-09-06 05:00:00,
2013-09-06 01:05:00,68.5,62.8,29.81,NNW,338,0.0,0.0,82,0.00,,,0.00,WUHU216HW,2013-09-06 05:05:00,
2013-09-06 01:10:00,68.3,63.0,29.80,NNW,338,0.0,0.0,83,0.00,,,0.00,WUHU216HW,2013-09-06 05:10:00,
2013-09-06 01:16:00,68.1,62.5,29.80,NNW,338,0.0,0.0,83,0.00,,,0.00,WUHU216HW,2013-09-06 05:16:00,
2013-09-06 01:18:00,74.1,53.7,29.95,West,270,0.0,2.9,49,0.00,,,0.00,WUHU216HW,2013-09-06 05:18:00,
2013-09-06 01:19:00,74.1,53.7,29.95,West,270,0.0,2.9,49,0.00,,,0.00,WUHU216HW,2013-09-06 05:19:00,
2013-09-06 01:20:00,74.1,53.7,29.95,WNW,293,0.0,2.9,50,0.00,,,0.00,WUHU216HW,2013-09-06 05:20:00,
2013-09-06 01:21:00,68.1,62.5,29.80,NNW,338,0.0,0.0,82,0.00,,,0.00,WUHU216HW,2013-09-06 05:21:00,
2013-09-06 01:22:00,74.1,53.7,29.95,WNW,293,0.0,2.9,50,0.00,,,0.00,WUHU216HW,2013-09-06 05:22:00,
2013-09-06 01:23:00,74.1,53.7,29.95,NW,315,0.0,2.9,49,0.00,,,0.00,WUHU216HW,2013-09-06 05:23:00,
2013-09-06 01:24:00,74.1,53.7,29.95,SE,135,0.0,0.0,49,0.00,,,0.00,WUHU216HW,2013-09-06 05:24:00,
2013-09-06 01:25:00,74.1,53.7,29.95,SE,135,0.0,0.0,49,0.00,,,0.00,WUHU216HW,2013-09-06 05:25:00,
2013-09-06 01:26:00,68.1,62.5,29.80,NNW,338,0.0,0.0,83,0.00,,,0.00,WUHU216HW,2013-09-06 05:26:00,
2013-09-06 01:27:00,73.9,53.5,29.95,NW,315,0.0,0.0,49,0.00,,,0.00,WUHU216HW,2013-09-06 05:27:00,
2013-09-06 01:28:00,73.9,53.5,29.95,NW,315,0.0,0.0,49,0.00,,,0.00,WUHU216HW,2013-09-06 05:28:00,
2013-09-06 01:29:00,73.9,53.5,29.95,WSW,248,0.0,0.0,49,0.00,,,0.00,WUHU216HW,2013-09-06 05:29:00,
2013-09-06 01:30:00,73.9,53.5,29.95,WSW,248,0.0,0.0,49,0.00,,,0.00,WUHU216HW,2013-09-06 05:30:00,
2013-09-06 01:31:00,68.0,62.6,29.80,NNW,338,0.0,0.0,83,0.00,,,0.00,WUHU216HW,2013-09-06 05:31:00,
2013-09-06 01:36:00,67.8,62.4,29.80,NNW,338,0.0,0.0,83,0.00,,,0.00,WUHU216HW,2013-09-06 05:36:00,
2013-09-06 01:41:00,67.8,62.4,29.80,NNW,338,0.0,0.0,84,0.00,,,0.00,WUHU216HW,2013-09-06 05:41:00,
2013-09-06 01:46:00,67.6,62.6,29.80,NNW,338,0.0,0.0,84,0.00,,,0.00,WUHU216HW,2013-09-06 05:46:00,
2013-09-06 01:52:00,67.6,62.6,29.80,NNW,338,0.0,0.0,84,0.00,,,0.00,WUHU216HW,2013-09-06 05:52:00,
2013-09-06 01:57:00,67.6,62.6,29.80,NNW,338,0.0,0.0,84,0.00,,,0.00,WUHU216HW,2013-09-06 05:57:00,
2013-09-06 02:02:00,67.2,62.2,29.80,NNW,338,0.0,0.0,84,0.00,,,0.00,WUHU216HW,2013-09-06 06:02:00,
2013-09-06 02:07:00,67.2,62.2,29.80,NNW,338,0.0,0.0,84,0.00,,,0.00,WUHU216HW,2013-09-06 06:07:00,
2013-09-06 02:08:00,73.0,53.2,29.95,NNE,23,0.0,4.4,50,0.00,,,0.00,WUHU216HW,2013-09-06 06:08:00,
2013-09-06 02:09:00,73.0,53.2,29.95,NNE,23,0.0,4.4,50,0.00,,,0.00,WUHU216HW,2013-09-06 06:09:00,
2013-09-06 02:10:00,73.0,53.2,29.95,NNE,23,0.0,4.4,50,0.00,,,0.00,WUHU216HW,2013-09-06 06:10:00,
2013-09-06 02:11:00,73.0,53.2,29.95,NNE,23,0.0,4.4,50,0.00,,,0.00,WUHU216HW,2013-09-06 06:11:00,
2013-09-06 02:12:00,67.2,62.2,29.80,NNW,338,0.0,0.0,84,0.00,,,0.00,WUHU216HW,2013-09-06 06:12:00,
2013-09-06 02:13:00,73.0,53.2,29.95,NNW,338,0.0,4.4,50,0.00,,,0.00,WUHU216HW,2013-09-06 06:13:00,
2013-09-06 02:14:00,72.6,53.4,29.95,NNW,338,0.0,4.4,51,0.00,,,0.00,WUHU216HW,2013-09-06 06:14:00,
2013-09-06 02:15:00,72.6,53.4,29.95,NNW,338,0.0,0.0,51,0.00,,,0.00,WUHU216HW,2013-09-06 06:15:00,
2013-09-06 02:16:00,72.6,53.4,29.95,North,0,0.0,0.0,51,0.00,,,0.00,WUHU216HW,2013-09-06 06:16:00,
2013-09-06 02:17:00,67.2,62.2,29.80,NNW,338,0.0,0.0,84,0.00,,,0.00,WUHU216HW,2013-09-06 06:17:00,
2013-09-06 02:18:00,72.5,53.2,29.95,NW,315,0.0,0.0,51,0.00,,,0.00,WUHU216HW,2013-09-06 06:18:00,
2013-09-06 02:19:00,72.5,53.2,29.95,NW,315,0.0,0.0,51,0.00,,,0.00,WUHU216HW,2013-09-06 06:19:00,
2013-09-06 02:20:00,72.5,53.2,29.95,NW,315,0.0,0.0,51,0.00,,,0.00,WUHU216HW,2013-09-06 06:20:00,
2013-09-06 02:21:00,72.5,53.2,29.95,NW,315,0.0,0.0,51,0.00,,,0.00,WUHU216HW,2013-09-06 06:21:00,
2013-09-06 02:22:00,67.2,62.2,29.81,NNW,338,0.0,0.0,84,0.00,,,0.00,WUHU216HW,2013-09-06 06:22:00,
2013-09-06 02:23:00,72.5,53.2,29.95,North,0,0.0,0.0,51,0.00,,,0.00,WUHU216HW,2013-09-06 06:23:00,
2013-09-06 02:24:00,72.5,53.2,29.95,North,0,0.0,0.0,51,0.00,,,0.00,WUHU216HW,2013-09-06 06:24:00,
2013-09-06 02:25:00,72.3,53.6,29.95,NNW,338,0.0,0.0,52,0.00,,,0.00,WUHU216HW,2013-09-06 06:25:00,
2013-09-06 02:26:00,72.3,53.6,29.95,NNW,338,0.0,0.0,52,0.00,,,0.00,WUHU216HW,2013-09-06 06:26:00,
2013-09-06 02:28:00,67.1,62.0,29.80,NNW,338,0.0,0.0,84,0.00,,,0.00,WUHU216HW,2013-09-06 06:28:00,
2013-09-06 02:33:00,67.1,62.0,29.80,NNW,338,0.0,0.0,84,0.00,,,0.00,WUHU216HW,2013-09-06 06:33:00,
2013-09-06 02:34:00,72.3,53.6,29.95,North,0,0.0,0.0,52,0.00,,,0.00,WUHU216HW,2013-09-06 06:34:00,
2013-09-06 02:35:00,72.3,53.6,29.95,North,0,0.0,0.0,52,0.00,,,0.00,WUHU216HW,2013-09-06 06:35:00,
2013-09-06 02:36:00,72.3,53.6,29.95,North,0,0.0,0.0,52,0.00,,,0.00,WUHU216HW,2013-09-06 06:36:00,
2013-09-06 02:37:00,72.3,53.6,29.95,North,0,0.0,0.0,52,0.00,,,0.00,WUHU216HW,2013-09-06 06:37:00,
2013-09-06 02:38:00,67.1,62.0,29.80,NNW,338,0.0,0.0,84,0.00,,,0.00,WUHU216HW,2013-09-06 06:38:00,
2013-09-06 02:39:00,72.3,53.6,29.95,West,270,0.0,0.0,52,0.00,,,0.00,WUHU216HW,2013-09-06 06:39:00,
2013-09-06 02:40:00,72.3,53.6,29.95,West,270,0.0,0.0,52,0.00,,,0.00,WUHU216HW,2013-09-06 06:40:00,
2013-09-06 02:41:00,72.3,53.6,29.95,West,270,0.0,0.0,52,0.00,,,0.00,WUHU216HW,2013-09-06 06:41:00,
2013-09-06 02:42:00,72.1,53.4,29.95,NW,315,0.0,0.0,52,0.00,,,0.00,WUHU216HW,2013-09-06 06:42:00,
2013-09-06 02:43:00,72.1,53.4,29.95,NW,315,0.0,0.0,52,0.00,,,0.00,WUHU216HW,2013-09-06 06:43:00,
2013-09-06 02:44:00,67.1,62.0,29.80,NNW,338,0.0,0.0,85,0.00,,,0.00,WUHU216HW,2013-09-06 06:44:00,
2013-09-06 02:45:00,72.1,53.4,29.95,NW,315,0.0,0.0,51,0.00,,,0.00,WUHU216HW,2013-09-06 06:45:00,
2013-09-06 02:46:00,72.1,53.4,29.95,NW,315,0.0,0.0,51,0.00,,,0.00,WUHU216HW,2013-09-06 06:46:00,
2013-09-06 02:47:00,72.1,53.4,29.95,NW,315,0.0,0.0,51,0.00,,,0.00,WUHU216HW,2013-09-06 06:47:00,
2013-09-06 02:48:00,72.1,53.4,29.95,NW,315,0.0,0.0,52,0.00,,,0.00,WUHU216HW,2013-09-06 06:48:00,
2013-09-06 02:49:00,67.1,62.0,29.80,NNW,338,0.0,0.0,85,0.00,,,0.00,WUHU216HW,2013-09-06 06:49:00,
2013-09-06 02:50:00,72.1,53.4,29.95,NW,315,0.0,0.0,52,0.00,,,0.00,WUHU216HW,2013-09-06 06:50:00,
2013-09-06 02:51:00,72.1,53.4,29.95,NW,315,0.0,0.0,51,0.00,,,0.00,WUHU216HW,2013-09-06 06:51:00,
2013-09-06 02:52:00,71.9,53.3,29.95,NW,315,0.0,0.0,52,0.00,,,0.00,WUHU216HW,2013-09-06 06:52:00,
2013-09-06 02:53:00,71.9,53.3,29.95,NW,315,0.0,0.0,52,0.00,,,0.00,WUHU216HW,2013-09-06 06:53:00,
2013-09-06 02:54:00,67.1,62.0,29.80,NNW,338,0.0,0.0,85,0.00,,,0.00,WUHU216HW,2013-09-06 06:54:00,
2013-09-06 02:55:00,71.9,53.3,29.95,NW,315,0.0,0.0,52,0.00,,,0.00,WUHU216HW,2013-09-06 06:55:00,
2013-09-06 02:59:00,67.1,62.0,29.80,NNW,338,0.0,0.0,85,0.00,,,0.00,WUHU216HW,2013-09-06 06:59:00,
2013-09-06 03:04:00,67.1,62.0,29.80,NNW,338,0.0,0.0,84,0.00,,,0.00,WUHU216HW,2013-09-06 07:04:00,
2013-09-06 03:09:00,67.2,61.9,29.80,North,0,1.7,1.7,83,0.00,,,0.00,WUHU216HW,2013-09-06 07:09:00,
2013-09-06 03:13:00,71.2,53.1,29.95,North,0,0.0,0.0,53,0.00,,,0.00,WUHU216HW,2013-09-06 07:13:00,
2013-09-06 03:14:00,67.4,62.1,29.80,North,0,0.0,1.7,83,0.00,,,0.00,WUHU216HW,2013-09-06 07:14:00,
2013-09-06 03:15:00,71.2,53.1,29.95,North,0,0.0,0.0,54,0.00,,,0.00,WUHU216HW,2013-09-06 07:15:00,
2013-09-06 03:16:00,71.2,53.1,29.95,North,0,0.0,0.0,54,0.00,,,0.00,WUHU216HW,2013-09-06 07:16:00,
2013-09-06 03:17:00,71.0,53.5,29.95,North,0,0.0,0.0,54,0.00,,,0.00,WUHU216HW,2013-09-06 07:17:00,
2013-09-06 03:18:00,71.0,53.5,29.95,North,0,0.0,0.0,54,0.00,,,0.00,WUHU216HW,2013-09-06 07:18:00,
2013-09-06 03:19:00,67.6,62.3,29.80,NNW,338,0.0,1.7,82,0.00,,,0.00,WUHU216HW,2013-09-06 07:19:00,
2013-09-06 03:20:00,71.0,53.5,29.95,North,0,0.0,0.0,54,0.00,,,0.00,WUHU216HW,2013-09-06 07:20:00,
2013-09-06 03:22:00,70.8,53.3,29.95,North,0,0.0,0.0,54,0.00,,,0.00,WUHU216HW,2013-09-06 07:22:00,
2013-09-06 03:23:00,70.8,53.3,29.95,North,0,0.0,0.0,55,0.00,,,0.00,WUHU216HW,2013-09-06 07:23:00,
2013-09-06 03:24:00,70.7,53.6,29.95,North,0,0.0,0.0,55,0.00,,,0.00,WUHU216HW,2013-09-06 07:24:00,
2013-09-06 03:25:00,67.8,61.8,29.80,NNW,338,0.0,0.0,81,0.00,,,0.00,WUHU216HW,2013-09-06 07:25:00,
2013-09-06 03:26:00,70.7,53.6,29.95,North,0,0.0,0.0,55,0.00,,,0.00,WUHU216HW,2013-09-06 07:26:00,
2013-09-06 03:27:00,70.5,53.5,29.95,NNW,338,0.0,0.0,55,0.00,,,0.00,WUHU216HW,2013-09-06 07:27:00,
2013-09-06 03:28:00,70.5,53.5,29.95,NNW,338,0.0,0.0,55,0.00,,,0.00,WUHU216HW,2013-09-06 07:28:00,
2013-09-06 03:29:00,70.5,53.5,29.95,North,0,0.0,0.0,55,0.00,,,0.00,WUHU216HW,2013-09-06 07:29:00,
2013-09-06 03:30:00,67.8,61.8,29.80,NE,45,0.0,0.0,81,0.00,,,0.00,WUHU216HW,2013-09-06 07:30:00,
2013-09-06 03:31:00,70.3,53.3,29.95,North,0,0.0,0.0,55,0.00,,,0.00,WUHU216HW,2013-09-06 07:31:00,
2013-09-06 03:32:00,70.3,53.3,29.95,North,0,0.0,0.0,55,0.00,,,0.00,WUHU216HW,2013-09-06 07:32:00,
2013-09-06 03:33:00,70.3,53.3,29.95,North,0,0.0,0.0,55,0.00,,,0.00,WUHU216HW,2013-09-06 07:33:00,
2013-09-06 03:34:00,70.3,53.3,29.95,North,0,0.0,0.0,55,0.00,,,0.00,WUHU216HW,2013-09-06 07:34:00,
2013-09-06 03:35:00,67.8,61.8,29.80,North,0,0.0,0.0,81,0.00,,,0.00,WUHU216HW,2013-09-06 07:35:00,
2013-09-06 03:36:00,70.3,53.3,29.95,North,0,0.0,0.0,56,0.00,,,0.00,WUHU216HW,2013-09-06 07:36:00,
2013-09-06 03:37:00,70.3,53.3,29.95,North,0,0.0,0.0,56,0.00,,,0.00,WUHU216HW,2013-09-06 07:37:00,
2013-09-06 03:38:00,70.1,53.7,29.95,North,0,0.0,0.0,56,0.00,,,0.00,WUHU216HW,2013-09-06 07:38:00,
2013-09-06 03:39:00,70.1,53.7,29.95,North,0,0.0,0.0,56,0.00,,,0.00,WUHU216HW,2013-09-06 07:39:00,
2013-09-06 03:40:00,68.1,61.8,29.80,WNW,293,0.0,0.0,80,0.00,,,0.00,WUHU216HW,2013-09-06 07:40:00,
2013-09-06 03:44:00,69.9,53.5,29.95,North,0,0.0,0.0,57,0.00,,,0.00,WUHU216HW,2013-09-06 07:44:00,
2013-09-06 03:45:00,68.3,62.0,29.80,North,0,0.0,0.0,80,0.00,,,0.00,WUHU216HW,2013-09-06 07:45:00,
2013-09-06 03:46:00,69.9,53.5,29.95,North,0,0.0,0.0,57,0.00,,,0.00,WUHU216HW,2013-09-06 07:46:00,
2013-09-06 03:47:00,69.8,53.8,29.95,NNW,338,0.0,0.0,57,0.00,,,0.00,WUHU216HW,2013-09-06 07:47:00,
2013-09-06 03:48:00,69.8,53.8,29.95,NNW,338,0.0,0.0,57,0.00,,,0.00,WUHU216HW,2013-09-06 07:48:00,
2013-09-06 03:49:00,69.6,53.7,29.95,NNW,338,0.0,0.0,57,0.00,,,0.00,WUHU216HW,2013-09-06 07:49:00,
2013-09-06 03:50:00,68.3,62.0,29.81,NNE,23,0.0,0.0,80,0.00,,,0.00,WUHU216HW,2013-09-06 07:50:00,
2013-09-06 03:51:00,69.4,54.0,29.95,NNW,338,0.0,0.0,58,0.00,,,0.00,WUHU216HW,2013-09-06 07:51:00,
2013-09-06 03:52:00,69.4,54.0,29.95,NNW,338,0.0,0.0,58,0.00,,,0.00,WUHU216HW,2013-09-06 07:52:00,
2013-09-06 03:53:00,69.4,54.0,29.95,NNW,338,0.0,0.0,58,0.00,,,0.00,WUHU216HW,2013-09-06 07:53:00,
2013-09-06 03:54:00,69.4,54.0,29.95,NNW,338,0.0,0.0,58,0.00,,,0.00,WUHU216HW,2013-09-06 07:54:00,
2013-09-06 03:55:00,68.3,62.0,29.81,ENE,68,0.0,0.0,80,0.00,,,0.00,WUHU216HW,2013-09-06 07:55:00,
2013-09-06 03:56:00,69.2,53.8,29.95,NNW,338,0.0,0.0,58,0.00,,,0.00,WUHU216HW,2013-09-06 07:56:00,
2013-09-06 03:57:00,69.0,53.6,29.95,NNW,338,0.0,0.0,58,0.00,,,0.00,WUHU216HW,2013-09-06 07:57:00,
2013-09-06 03:58:00,69.0,53.6,29.95,NNW,338,0.0,0.0,58,0.00,,,0.00,WUHU216HW,2013-09-06 07:58:00,
2013-09-06 03:59:00,69.0,53.6,29.96,NNW,338,0.0,0.0,59,0.00,,,0.00,WUHU216HW,2013-09-06 07:59:00,
2013-09-06 04:00:00,68.3,62.0,29.81,North,0,0.0,0.0,80,0.00,,,0.00,WUHU216HW,2013-09-06 08:00:00,
2013-09-06 04:01:00,69.0,53.6,29.95,NNW,338,0.0,0.0,59,0.00,,,0.00,WUHU216HW,2013-09-06 08:01:00,
2013-09-06 04:02:00,68.9,54.0,29.95,NNW,338,0.0,0.0,59,0.00,,,0.00,WUHU216HW,2013-09-06 08:02:00,
2013-09-06 04:03:00,68.9,54.0,29.96,NNW,338,0.0,0.0,59,0.00,,,0.00,WUHU216HW,2013-09-06 08:03:00,
2013-09-06 04:05:00,68.3,62.0,29.81,NNE,23,0.0,1.3,80,0.00,,,0.00,WUHU216HW,2013-09-06 08:05:00,
2013-09-06 04:10:00,68.3,62.0,29.81,North,0,0.0,1.3,80,0.00,,,0.00,WUHU216HW,2013-09-06 08:10:00,
2013-09-06 04:15:00,68.1,61.4,29.81,NNW,338,0.0,0.0,80,0.00,,,0.00,WUHU216HW,2013-09-06 08:15:00,
2013-09-06 04:16:00,68.5,54.1,29.96,NNW,338,0.0,0.0,61,0.00,,,0.00,WUHU216HW,2013-09-06 08:16:00,
2013-09-06 04:18:00,68.3,53.9,29.96,North,0,0.0,0.0,60,0.00,,,0.00,WUHU216HW,2013-09-06 08:18:00,
2013-09-06 04:20:00,68.1,61.4,29.81,North,0,0.0,0.0,80,0.00,,,0.00,WUHU216HW,2013-09-06 08:20:00,
2013-09-06 04:21:00,68.1,53.7,29.95,North,0,0.0,0.0,61,0.00,,,0.00,WUHU216HW,2013-09-06 08:21:00,
2013-09-06 04:22:00,68.1,53.7,29.95,North,0,0.0,0.0,61,0.00,,,0.00,WUHU216HW,2013-09-06 08:22:00,
2013-09-06 04:23:00,68.1,53.7,29.96,North,0,0.0,0.0,61,0.00,,,0.00,WUHU216HW,2013-09-06 08:23:00,
2013-09-06 04:24:00,68.1,53.7,29.96,North,0,0.0,0.0,61,0.00,,,0.00,WUHU216HW,2013-09-06 08:24:00,
2013-09-06 04:25:00,68.0,54.0,29.96,North,0,0.0,0.0,61,0.00,,,0.00,WUHU216HW,2013-09-06 08:25:00,
2013-09-06 04:26:00,68.0,61.7,29.81,North,0,2.2,2.4,80,0.00,,,0.00,WUHU216HW,2013-09-06 08:26:00,
2013-09-06 04:27:00,68.0,54.0,29.96,North,0,0.0,0.0,61,0.00,,,0.00,WUHU216HW,2013-09-06 08:27:00,
2013-09-06 04:28:00,67.8,53.8,29.96,North,0,0.0,0.0,61,0.00,,,0.00,WUHU216HW,2013-09-06 08:28:00,
2013-09-06 04:29:00,67.8,53.8,29.96,North,0,0.0,0.0,62,0.00,,,0.00,WUHU216HW,2013-09-06 08:29:00,
2013-09-06 04:30:00,67.8,53.8,29.96,North,0,0.0,0.0,62,0.00,,,0.00,WUHU216HW,2013-09-06 08:30:00,
2013-09-06 04:31:00,67.8,61.5,29.81,NNE,23,0.0,2.4,81,0.00,,,0.00,WUHU216HW,2013-09-06 08:31:00,
2013-09-06 04:32:00,67.8,53.8,29.96,North,0,0.0,0.0,61,0.00,,,0.00,WUHU216HW,2013-09-06 08:32:00,
2013-09-06 04:33:00,67.8,53.8,29.96,North,0,0.0,0.0,61,0.00,,,0.00,WUHU216HW,2013-09-06 08:33:00,
2013-09-06 04:34:00,67.6,53.7,29.96,North,0,0.0,0.0,61,0.00,,,0.00,WUHU216HW,2013-09-06 08:34:00,
2013-09-06 04:35:00,67.6,53.7,29.96,North,0,0.0,0.0,61,0.00,,,0.00,WUHU216HW,2013-09-06 08:35:00,
2013-09-06 04:36:00,67.8,61.5,29.81,NNE,23,0.0,2.2,80,0.00,,,0.00,WUHU216HW,2013-09-06 08:36:00,
2013-09-06 04:37:00,67.6,53.7,29.96,North,0,0.0,0.0,61,0.00,,,0.00,WUHU216HW,2013-09-06 08:37:00,
2013-09-06 04:38:00,67.6,53.7,29.96,North,0,0.0,0.0,62,0.00,,,0.00,WUHU216HW,2013-09-06 08:38:00,
2013-09-06 04:39:00,67.6,53.7,29.96,North,0,0.0,0.0,62,0.00,,,0.00,WUHU216HW,2013-09-06 08:39:00,
2013-09-06 04:40:00,67.4,53.9,29.96,North,0,0.0,0.0,62,0.00,,,0.00,WUHU216HW,2013-09-06 08:40:00,
2013-09-06 04:41:00,67.8,61.5,29.81,NNE,23,0.0,0.0,81,0.00,,,0.00,WUHU216HW,2013-09-06 08:41:00,
2013-09-06 04:44:00,67.4,53.9,29.96,North,0,0.0,0.0,62,0.00,,,0.00,WUHU216HW,2013-09-06 08:44:00,
2013-09-06 04:46:00,67.6,61.6,29.82,NNE,23,0.0,0.0,81,0.00,,,0.00,WUHU216HW,2013-09-06 08:46:00,
2013-09-06 04:51:00,67.6,61.6,29.82,North,0,0.0,0.0,81,0.00,,,0.00,WUHU216HW,2013-09-06 08:51:00,
2013-09-06 04:56:00,67.6,61.6,29.82,NNW,338,0.0,0.0,81,0.00,,,0.00,WUHU216HW,2013-09-06 08:56:00,
2013-09-06 05:01:00,67.4,61.4,29.82,North,0,1.1,1.1,81,0.00,,,0.00,WUHU216HW,2013-09-06 09:01:00,
2013-09-06 05:05:00,66.3,53.8,29.97,North,0,0.0,0.0,64,0.00,,,0.00,WUHU216HW,2013-09-06 09:05:00,
2013-09-06 05:06:00,67.2,60.9,29.82,NNW,338,0.6,1.1,81,0.00,,,0.00,WUHU216HW,2013-09-06 09:06:00,
2013-09-06 05:07:00,66.3,53.8,29.97,North,0,0.0,0.0,64,0.00,,,0.00,WUHU216HW,2013-09-06 09:07:00,
2013-09-06 05:08:00,66.2,53.6,29.97,North,0,0.0,0.0,64,0.00,,,0.00,WUHU216HW,2013-09-06 09:08:00,
2013-09-06 05:09:00,66.2,53.6,29.97,North,0,0.0,0.0,64,0.00,,,0.00,WUHU216HW,2013-09-06 09:09:00,
2013-09-06 05:10:00,66.2,53.6,29.97,North,0,0.0,0.0,65,0.00,,,0.00,WUHU216HW,2013-09-06 09:10:00,
2013-09-06 05:11:00,66.2,53.6,29.97,North,0,0.0,0.0,65,0.00,,,0.00,WUHU216HW,2013-09-06 09:11:00,
2013-09-06 05:12:00,67.2,60.9,29.82,NNW,338,0.0,1.1,80,0.00,,,0.00,WUHU216HW,2013-09-06 09:12:00,
2013-09-06 05:17:00,67.2,60.9,29.82,NNW,338,0.0,0.6,80,0.00,,,0.00,WUHU216HW,2013-09-06 09:17:00,
2013-09-06 05:22:00,67.2,60.9,29.83,NNW,338,0.0,0.0,80,0.00,,,0.00,WUHU216HW,2013-09-06 09:22:00,
2013-09-06 05:27:00,67.1,60.8,29.82,NNW,338,0.0,0.0,79,0.00,,,0.00,WUHU216HW,2013-09-06 09:27:00,
2013-09-06 05:32:00,66.9,60.2,29.82,North,0,0.0,0.0,79,0.00,,,0.00,WUHU216HW,2013-09-06 09:32:00,
2013-09-06 05:34:00,65.3,53.6,29.97,NW,315,0.0,0.0,66,0.00,,,0.00,WUHU216HW,2013-09-06 09:34:00,
2013-09-06 05:35:00,65.3,53.6,29.98,NW,315,0.0,0.0,66,0.00,,,0.00,WUHU216HW,2013-09-06 09:35:00,
2013-09-06 05:36:00,65.3,53.6,29.98,NW,315,0.0,0.0,66,0.00,,,0.00,WUHU216HW,2013-09-06 09:36:00,
2013-09-06 05:37:00,66.9,60.2,29.82,NW,315,0.0,0.0,78,0.00,,,0.00,WUHU216HW,2013-09-06 09:37:00,
2013-09-06 05:38:00,65.3,53.6,29.98,NW,315,0.0,0.0,66,0.00,,,0.00,WUHU216HW,2013-09-06 09:38:00,
2013-09-06 05:39:00,65.1,53.4,29.98,NNW,338,0.0,0.0,66,0.00,,,0.00,WUHU216HW,2013-09-06 09:39:00,
2013-09-06 05:40:00,65.1,53.4,29.98,North,0,0.0,0.0,66,0.00,,,0.00,WUHU216HW,2013-09-06 09:40:00,
2013-09-06 05:41:00,65.1,53.4,29.98,North,0,0.0,0.0,66,0.00,,,0.00,WUHU216HW,2013-09-06 09:41:00,
2013-09-06 05:42:00,66.9,60.2,29.83,NNW,338,0.0,0.0,78,0.00,,,0.00,WUHU216HW,2013-09-06 09:42:00,
2013-09-06 05:43:00,65.1,53.4,29.98,NNW,338,0.0,0.0,66,0.00,,,0.00,WUHU216HW,2013-09-06 09:43:00,
2013-09-06 05:44:00,65.1,53.4,29.98,NNW,338,0.0,0.0,66,0.00,,,0.00,WUHU216HW,2013-09-06 09:44:00,
2013-09-06 05:45:00,65.1,53.4,29.98,NNW,338,0.0,0.0,66,0.00,,,0.00,WUHU216HW,2013-09-06 09:45:00,
2013-09-06 05:46:00,65.1,53.4,29.97,North,0,0.0,0.0,66,0.00,,,0.00,WUHU216HW,2013-09-06 09:46:00,
2013-09-06 05:47:00,66.9,60.2,29.83,NNW,338,0.0,0.0,78,0.00,,,0.00,WUHU216HW,2013-09-06 09:47:00,
2013-09-06 05:48:00,65.1,53.4,29.98,North,0,0.0,0.0,66,0.00,,,0.00,WUHU216HW,2013-09-06 09:48:00,
2013-09-06 05:49:00,64.9,53.2,29.97,NNW,338,0.0,0.0,66,0.00,,,0.00,WUHU216HW,2013-09-06 09:49:00,
2013-09-06 05:50:00,64.9,53.2,29.97,NNW,338,0.0,0.0,66,0.00,,,0.00,WUHU216HW,2013-09-06 09:50:00,
2013-09-06 05:51:00,64.9,53.2,29.98,NNW,338,0.0,0.0,66,0.00,,,0.00,WUHU216HW,2013-09-06 09:51:00,
2013-09-06 05:52:00,66.7,59.6,29.83,NNW,338,0.0,0.0,77,0.00,,,0.00,WUHU216HW,2013-09-06 09:52:00,
2013-09-06 05:53:00,64.9,53.2,29.98,NNW,338,0.0,0.0,66,0.00,,,0.00,WUHU216HW,2013-09-06 09:53:00,
2013-09-06 05:54:00,64.9,53.2,29.98,North,0,0.0,0.0,67,0.00,,,0.00,WUHU216HW,2013-09-06 09:54:00,
2013-09-06 05:57:00,66.7,59.6,29.83,NW,315,0.0,0.0,78,0.00,,,0.00,WUHU216HW,2013-09-06 09:57:00,
2013-09-06 06:03:00,66.7,59.6,29.84,NW,315,2.4,2.4,78,0.00,,,0.00,WUHU216HW,2013-09-06 10:03:00,
2013-09-06 06:08:00,66.5,59.5,29.83,NW,315,0.0,2.4,78,0.00,,,0.00,WUHU216HW,2013-09-06 10:08:00,
2013-09-06 06:13:00,66.5,59.5,29.83,NNW,338,0.0,0.0,78,0.00,,,0.00,WUHU216HW,2013-09-06 10:13:00,
2013-09-06 06:17:00,64.2,53.4,29.99,NE,45,0.0,0.0,68,0.00,,,0.00,WUHU216HW,2013-09-06 10:17:00,
2013-09-06 06:18:00,66.3,59.3,29.84,NNW,338,0.0,0.0,78,0.00,,,0.00,WUHU216HW,2013-09-06 10:18:00,
2013-09-06 06:21:00,64.2,53.4,29.99,NW,315,0.0,0.0,68,0.00,,,0.00,WUHU216HW,2013-09-06 10:21:00,
2013-09-06 06:22:00,64.2,53.4,29.99,NW,315,0.0,0.0,67,0.00,,,0.00,WUHU216HW,2013-09-06 10:22:00,
2013-09-06 06:23:00,66.3,59.3,29.84,NNW,338,0.0,0.0,78,0.00,,,0.00,WUHU216HW,2013-09-06 10:23:00,
2013-09-06 06:24:00,64.2,53.4,29.99,NNE,23,0.0,0.0,67,0.00,,,0.00,WUHU216HW,2013-09-06 10:24:00,
2013-09-06 06:25:00,64.0,53.2,29.99,NW,315,0.0,0.0,68,0.00,,,0.00,WUHU216HW,2013-09-06 10:25:00,
2013-09-06 06:26:00,64.0,53.2,29.99,NW,315,0.0,0.0,68,0.00,,,0.00,WUHU216HW,2013-09-06 10:26:00,
2013-09-06 06:28:00,66.3,59.3,29.85,NW,315,0.0,0.0,78,0.00,,,0.00,WUHU216HW,2013-09-06 10:28:00,
2013-09-06 06:30:00,64.0,53.2,29.99,NW,315,0.0,0.0,68,0.00,,,0.00,WUHU216HW,2013-09-06 10:30:00,
2013-09-06 06:33:00,66.3,59.3,29.84,NNW,338,0.0,5.5,77,0.00,,,0.00,WUHU216HW,2013-09-06 10:33:00,
2013-09-06 06:35:00,64.0,53.2,29.99,WNW,293,0.0,0.0,68,0.00,,,0.00,WUHU216HW,2013-09-06 10:35:00,
2013-09-06 06:36:00,64.0,53.2,29.99,WNW,293,0.0,0.0,68,0.00,,,0.00,WUHU216HW,2013-09-06 10:36:00,
2013-09-06 06:38:00,66.0,58.5,29.84,NNW,338,0.0,5.5,77,0.00,,,0.00,WUHU216HW,2013-09-06 10:38:00,
2013-09-06 06:39:00,63.8,53.1,29.99,NE,45,0.0,0.0,68,0.00,,,0.00,WUHU216HW,2013-09-06 10:39:00,
2013-09-06 06:40:00,63.8,53.1,29.99,NE,45,0.0,0.0,68,0.00,,,0.00,WUHU216HW,2013-09-06 10:40:00,
2013-09-06 06:43:00,66.0,58.5,29.85,NNW,338,0.0,0.0,77,0.00,,,0.00,WUHU216HW,2013-09-06 10:43:00,
2013-09-06 06:44:00,63.6,52.9,29.99,NNW,338,0.0,0.0,68,0.00,,,0.00,WUHU216HW,2013-09-06 10:44:00,
2013-09-06 06:49:00,66.0,58.5,29.85,NNW,338,0.0,0.0,77,0.00,,,0.00,WUHU216HW,2013-09-06 10:49:00,
2013-09-06 06:54:00,65.8,58.4,29.85,NNW,338,0.0,0.0,77,0.00,,,0.00,WUHU216HW,2013-09-06 10:54:00,
2013-09-06 06:59:00,65.8,58.4,29.85,North,0,3.8,3.8,76,0.00,,,0.00,WUHU216HW,2013-09-06 10:59:00,
2013-09-06 07:01:00,63.3,53.0,30.00,NNE,23,0.0,0.0,69,0.00,,,0.00,WUHU216HW,2013-09-06 11:01:00,
2013-09-06 07:02:00,63.1,52.8,30.00,NNW,338,0.0,0.0,69,0.00,,,0.00,WUHU216HW,2013-09-06 11:02:00,
2013-09-06 07:03:00,63.1,52.8,30.00,NNW,338,0.0,0.0,69,0.00,,,0.00,WUHU216HW,2013-09-06 11:03:00,
2013-09-06 07:04:00,65.8,58.4,29.85,NNW,338,0.0,3.8,76,0.00,,,0.00,WUHU216HW,2013-09-06 11:04:00,
2013-09-06 07:05:00,63.1,52.8,30.00,NNW,338,0.0,0.0,69,0.00,,,0.00,WUHU216HW,2013-09-06 11:05:00,
2013-09-06 07:06:00,63.1,52.8,30.00,NNW,338,0.0,0.0,69,0.00,,,0.00,WUHU216HW,2013-09-06 11:06:00,
2013-09-06 07:07:00,63.1,52.8,30.00,North,0,0.0,0.0,68,0.00,,,0.00,WUHU216HW,2013-09-06 11:07:00,
2013-09-06 07:08:00,63.1,52.8,30.00,North,0,0.0,0.0,68,0.00,,,0.00,WUHU216HW,2013-09-06 11:08:00,
2013-09-06 07:09:00,65.8,58.4,29.85,NNW,338,0.0,3.8,77,0.00,,,0.00,WUHU216HW,2013-09-06 11:09:00,
2013-09-06 07:10:00,62.9,52.6,30.00,North,0,0.0,0.0,69,0.00,,,0.00,WUHU216HW,2013-09-06 11:10:00,
2013-09-06 07:11:00,62.9,52.6,30.00,North,0,0.0,0.0,69,0.00,,,0.00,WUHU216HW,2013-09-06 11:11:00,
2013-09-06 07:12:00,62.9,52.6,30.00,North,0,0.0,0.0,69,0.00,,,0.00,WUHU216HW,2013-09-06 11:12:00,
2013-09-06 07:13:00,62.7,52.8,30.00,North,0,0.0,0.0,70,0.00,,,0.00,WUHU216HW,2013-09-06 11:13:00,
2013-09-06 07:14:00,65.8,58.4,29.86,NNW,338,0.0,0.0,77,0.00,,,0.00,WUHU216HW,2013-09-06 11:14:00,
2013-09-06 07:15:00,62.7,52.8,30.00,North,0,0.0,0.0,70,0.00,,,0.00,WUHU216HW,2013-09-06 11:15:00,
2013-09-06 07:16:00,62.7,52.8,30.00,North,0,0.0,0.0,70,0.00,,,0.00,WUHU216HW,2013-09-06 11:16:00,
2013-09-06 07:17:00,62.7,52.8,30.00,NW,315,0.0,0.0,70,0.00,,,0.00,WUHU216HW,2013-09-06 11:17:00,
2013-09-06 07:18:00,62.7,52.8,30.00,NW,315,0.0,0.0,70,0.00,,,0.00,WUHU216HW,2013-09-06 11:18:00,
2013-09-06 07:19:00,65.8,58.4,29.86,NNW,338,0.0,0.0,78,0.00,,,0.00,WUHU216HW,2013-09-06 11:19:00,
2013-09-06 07:20:00,62.6,52.7,30.00,NW,315,0.0,0.0,70,0.00,,,0.00,WUHU216HW,2013-09-06 11:20:00,
2013-09-06 07:21:00,62.6,52.7,30.01,NW,315,0.0,0.0,70,0.00,,,0.00,WUHU216HW,2013-09-06 11:21:00,
2013-09-06 07:22:00,62.4,52.5,30.00,North,0,0.0,0.0,70,0.00,,,0.00,WUHU216HW,2013-09-06 11:22:00,
2013-09-06 07:23:00,62.4,52.5,30.00,North,0,0.0,0.0,70,0.00,,,0.00,WUHU216HW,2013-09-06 11:23:00,
2013-09-06 07:24:00,65.4,58.4,29.86,NNW,338,0.0,0.0,78,0.00,,,0.00,WUHU216HW,2013-09-06 11:24:00,
2013-09-06 07:26:00,62.4,52.5,30.00,NW,315,0.0,0.0,70,0.00,,,0.00,WUHU216HW,2013-09-06 11:26:00,
2013-09-06 07:27:00,62.4,52.5,30.00,NW,315,0.0,0.0,70,0.00,,,0.00,WUHU216HW,2013-09-06 11:27:00,
2013-09-06 07:29:00,65.4,58.4,29.86,NNW,338,0.0,0.0,79,0.00,,,0.00,WUHU216HW,2013-09-06 11:29:00,
2013-09-06 07:34:00,65.4,58.8,29.86,NNW,338,0.0,0.0,79,0.00,,,0.00,WUHU216HW,2013-09-06 11:34:00,
2013-09-06 07:40:00,65.8,59.1,29.86,NNW,338,0.0,0.0,79,0.00,,,0.00,WUHU216HW,2013-09-06 11:40:00,
2013-09-06 07:45:00,65.8,59.1,29.86,NNW,338,0.0,0.0,79,0.00,,,0.00,WUHU216HW,2013-09-06 11:45:00,
2013-09-06 07:50:00,65.8,59.1,29.87,North,0,0.0,0.0,79,0.00,,,0.00,WUHU216HW,2013-09-06 11:50:00,
2013-09-06 07:55:00,65.8,59.1,29.87,North,0,0.0,0.0,80,0.00,,,0.00,WUHU216HW,2013-09-06 11:55:00,
2013-09-06 08:00:00,65.8,59.1,29.87,NNW,338,0.0,0.0,79,0.00,,,0.00,WUHU216HW,2013-09-06 12:00:00,
2013-09-06 08:05:00,66.0,59.3,29.87,NNW,338,1.5,1.5,79,0.00,,,0.00,WUHU216HW,2013-09-06 12:05:00,
2013-09-06 08:10:00,66.2,58.7,29.88,NNE,23,0.0,1.5,77,0.00,,,0.00,WUHU216HW,2013-09-06 12:10:00,
2013-09-06 08:13:00,61.3,52.2,30.01,NE,45,0.0,0.0,72,0.00,,,0.00,WUHU216HW,2013-09-06 12:13:00,
2013-09-06 08:14:00,61.3,52.2,30.01,NE,45,0.0,0.0,72,0.00,,,0.00,WUHU216HW,2013-09-06 12:14:00,
2013-09-06 08:15:00,66.5,58.7,29.88,North,0,0.0,1.5,76,0.00,,,0.00,WUHU216HW,2013-09-06 12:15:00,
2013-09-06 08:16:00,61.3,52.2,30.01,NE,45,0.0,0.0,73,0.00,,,0.00,WUHU216HW,2013-09-06 12:16:00,
2013-09-06 08:17:00,61.3,52.2,30.01,NE,45,0.0,0.0,73,0.00,,,0.00,WUHU216HW,2013-09-06 12:17:00,
2013-09-06 08:18:00,61.3,52.2,30.01,NE,45,0.0,0.0,73,0.00,,,0.00,WUHU216HW,2013-09-06 12:18:00,
2013-09-06 08:19:00,61.3,52.2,30.01,NE,45,0.0,0.0,73,0.00,,,0.00,WUHU216HW,2013-09-06 12:19:00,
2013-09-06 08:20:00,66.7,58.5,29.88,NNW,338,2.6,2.6,75,0.00,,,0.00,WUHU216HW,2013-09-06 12:20:00,
2013-09-06 08:21:00,61.3,52.2,30.01,NE,45,0.0,0.0,72,0.00,,,0.00,WUHU216HW,2013-09-06 12:21:00,
2013-09-06 08:22:00,61.3,52.2,30.01,North,0,0.0,0.0,73,0.00,,,0.00,WUHU216HW,2013-09-06 12:22:00,
2013-09-06 08:23:00,61.3,52.2,30.01,North,0,0.0,0.0,73,0.00,,,0.00,WUHU216HW,2013-09-06 12:23:00,
2013-09-06 08:24:00,61.3,52.2,30.01,SSW,203,0.0,0.0,73,0.00,,,0.00,WUHU216HW,2013-09-06 12:24:00,
2013-09-06 08:25:00,61.3,52.2,30.01,SSW,203,0.0,0.0,73,0.00,,,0.00,WUHU216HW,2013-09-06 12:25:00,
2013-09-06 08:26:00,66.7,58.5,29.88,NNW,338,0.0,2.6,75,0.00,,,0.00,WUHU216HW,2013-09-06 12:26:00,
2013-09-06 08:27:00,61.1,52.4,30.01,SSW,203,0.0,0.0,73,0.00,,,0.00,WUHU216HW,2013-09-06 12:27:00,
2013-09-06 08:28:00,61.1,52.4,30.01,SSW,203,0.0,0.0,73,0.00,,,0.00,WUHU216HW,2013-09-06 12:28:00,
2013-09-06 08:29:00,61.1,52.4,30.01,SSW,203,0.0,0.0,74,0.00,,,0.00,WUHU216HW,2013-09-06 12:29:00,
2013-09-06 08:30:00,61.1,52.4,30.01,SSW,203,0.0,0.0,74,0.00,,,0.00,WUHU216HW,2013-09-06 12:30:00,
2013-09-06 08:31:00,66.9,58.3,29.88,NE,45,0.0,2.6,74,0.00,,,0.00,WUHU216HW,2013-09-06 12:31:00,
2013-09-06 08:32:00,61.1,52.4,30.01,WSW,248,0.0,0.0,74,0.00,,,0.00,WUHU216HW,2013-09-06 12:32:00,
2013-09-06 08:33:00,60.9,52.3,30.01,NNE,23,0.0,0.0,73,0.00,,,0.00,WUHU216HW,2013-09-06 12:33:00,
2013-09-06 08:35:00,60.9,52.3,30.00,NNW,338,0.0,0.0,73,0.00,,,0.00,WUHU216HW,2013-09-06 12:35:00,
2013-09-06 08:36:00,67.1,58.5,29.88,ENE,68,0.0,0.0,74,0.00,,,0.00,WUHU216HW,2013-09-06 12:36:00,
2013-09-06 08:37:00,60.9,52.3,30.00,NNW,338,0.0,0.0,74,0.00,,,0.00,WUHU216HW,2013-09-06 12:37:00,
2013-09-06 08:38:00,60.9,52.3,30.00,NNW,338,0.0,0.0,74,0.00,,,0.00,WUHU216HW,2013-09-06 12:38:00,
2013-09-06 08:39:00,60.8,52.5,30.01,NNW,338,0.0,0.0,74,0.00,,,0.00,WUHU216HW,2013-09-06 12:39:00,
2013-09-06 08:40:00,60.8,52.5,30.01,NNW,338,0.0,0.0,74,0.00,,,0.00,WUHU216HW,2013-09-06 12:40:00,
2013-09-06 08:41:00,67.1,58.1,29.88,NE,45,4.0,4.0,73,0.00,,,0.00,WUHU216HW,2013-09-06 12:41:00,
2013-09-06 08:42:00,60.8,52.5,30.01,NNW,338,0.0,0.0,74,0.00,,,0.00,WUHU216HW,2013-09-06 12:42:00,
2013-09-06 08:45:00,60.6,52.3,30.01,NE,45,0.0,0.0,74,0.00,,,0.00,WUHU216HW,2013-09-06 12:45:00,
2013-09-06 08:46:00,67.2,58.3,29.88,NE,45,1.3,4.0,74,0.00,,,0.00,WUHU216HW,2013-09-06 12:46:00,
2013-09-06 08:47:00,60.6,52.3,30.01,NE,45,0.0,0.0,74,0.00,,,0.00,WUHU216HW,2013-09-06 12:47:00,
2013-09-06 08:48:00,60.6,52.3,30.01,NE,45,0.0,0.0,74,0.00,,,0.00,WUHU216HW,2013-09-06 12:48:00,
2013-09-06 08:49:00,60.6,52.3,30.01,NNW,338,0.0,0.0,74,0.00,,,0.00,WUHU216HW,2013-09-06 12:49:00,
2013-09-06 08:50:00,60.6,52.3,30.01,NNW,338,0.0,0.0,74,0.00,,,0.00,WUHU216HW,2013-09-06 12:50:00,
2013-09-06 08:51:00,67.4,58.5,29.88,North,0,0.0,1.3,73,0.00,,,0.00,WUHU216HW,2013-09-06 12:51:00,
2013-09-06 08:53:00,60.4,52.5,30.01,NNW,338,0.0,0.0,75,0.00,,,0.00,WUHU216HW,2013-09-06 12:53:00,
2013-09-06 08:54:00,60.4,52.5,30.01,NNW,338,0.0,0.0,75,0.00,,,0.00,WUHU216HW,2013-09-06 12:54:00,
2013-09-06 08:55:00,60.4,52.5,30.00,NNW,338,0.0,0.0,75,0.00,,,0.00,WUHU216HW,2013-09-06 12:55:00,
2013-09-06 08:56:00,67.6,58.6,29.88,NE,45,2.6,2.6,72,0.00,,,0.00,WUHU216HW,2013-09-06 12:56:00,
2013-09-06 08:57:00,60.4,52.5,30.01,ENE,68,0.0,0.0,74,0.00,,,0.00,WUHU216HW,2013-09-06 12:57:00,
2013-09-06 08:58:00,60.4,52.5,30.01,ENE,68,0.0,0.0,74,0.00,,,0.00,WUHU216HW,2013-09-06 12:58:00,
2013-09-06 08:59:00,60.4,52.5,30.01,West,270,0.0,0.0,75,0.00,,,0.00,WUHU216HW,2013-09-06 12:59:00,
2013-09-06 09:01:00,67.6,58.6,29.88,NE,45,5.1,5.1,73,0.00,,,0.00,WUHU216HW,2013-09-06 13:01:00,
2013-09-06 09:02:00,60.4,52.5,30.01,West,270,0.0,0.0,75,0.00,,,0.00,WUHU216HW,2013-09-06 13:02:00,
2013-09-06 09:03:00,60.4,52.5,30.01,West,270,0.0,0.0,75,0.00,,,0.00,WUHU216HW,2013-09-06 13:03:00,
2013-09-06 09:04:00,60.4,52.5,30.01,West,270,0.0,0.0,75,0.00,,,0.00,WUHU216HW,2013-09-06 13:04:00,
2013-09-06 09:05:00,60.4,52.5,30.01,West,270,0.0,0.0,75,0.00,,,0.00,WUHU216HW,2013-09-06 13:05:00,
2013-09-06 09:06:00,67.6,58.6,29.88,NE,45,0.0,5.1,73,0.00,,,0.00,WUHU216HW,2013-09-06 13:06:00,
2013-09-06 09:07:00,60.4,52.5,30.00,NNW,338,0.0,0.0,76,0.00,,,0.00,WUHU216HW,2013-09-06 13:07:00,
2013-09-06 09:08:00,60.4,52.5,30.00,NNW,338,0.0,0.0,76,0.00,,,0.00,WUHU216HW,2013-09-06 13:08:00,
2013-09-06 09:09:00,60.2,52.7,30.00,NNW,338,0.0,0.0,76,0.00,,,0.00,WUHU216HW,2013-09-06 13:09:00,
2013-09-06 09:10:00,60.2,52.7,30.01,NNW,338,0.0,0.0,76,0.00,,,0.00,WUHU216HW,2013-09-06 13:10:00,
2013-09-06 09:12:00,67.8,59.2,29.88,North,0,0.0,5.1,74,0.00,,,0.00,WUHU216HW,2013-09-06 13:12:00,
2013-09-06 09:17:00,67.8,59.2,29.88,NNW,338,0.0,0.0,74,0.00,,,0.00,WUHU216HW,2013-09-06 13:17:00,
2013-09-06 09:21:00,60.0,52.5,30.01,NNW,338,0.0,0.0,76,0.00,,,0.00,WUHU216HW,2013-09-06 13:21:00,
2013-09-06 09:22:00,68.3,59.7,29.88,NNW,338,0.0,0.0,74,0.00,,,0.00,WUHU216HW,2013-09-06 13:22:00,
2013-09-06 09:23:00,60.0,52.5,30.01,NE,45,0.0,0.0,76,0.00,,,0.00,WUHU216HW,2013-09-06 13:23:00,
2013-09-06 09:25:00,60.0,52.5,30.01,ENE,68,0.0,0.0,76,0.00,,,0.00,WUHU216HW,2013-09-06 13:25:00,
2013-09-06 09:26:00,59.9,52.3,30.01,ENE,68,0.0,0.0,76,0.00,,,0.00,WUHU216HW,2013-09-06 13:26:00,
2013-09-06 09:27:00,68.7,59.7,29.88,NE,45,0.0,0.0,73,0.00,,,0.00,WUHU216HW,2013-09-06 13:27:00,
2013-09-06 09:28:00,59.9,52.3,30.01,ENE,68,0.0,0.0,76,0.00,,,0.00,WUHU216HW,2013-09-06 13:28:00,
2013-09-06 09:29:00,59.9,52.3,30.01,ENE,68,0.0,0.0,76,0.00,,,0.00,WUHU216HW,2013-09-06 13:29:00,
2013-09-06 09:30:00,59.9,52.3,30.01,ENE,68,0.0,0.0,76,0.00,,,0.00,WUHU216HW,2013-09-06 13:30:00,
2013-09-06 09:31:00,59.7,52.1,30.01,NE,45,0.0,0.0,76,0.00,,,0.00,WUHU216HW,2013-09-06 13:31:00,
2013-09-06 09:32:00,68.9,60.2,29.88,NNW,338,0.0,0.0,74,0.00,,,0.00,WUHU216HW,2013-09-06 13:32:00,
2013-09-06 09:33:00,59.7,52.1,30.01,NE,45,0.0,0.0,76,0.00,,,0.00,WUHU216HW,2013-09-06 13:33:00,
2013-09-06 09:34:00,59.7,52.1,30.01,NE,45,0.0,0.0,76,0.00,,,0.00,WUHU216HW,2013-09-06 13:34:00,
2013-09-06 09:35:00,59.7,52.1,30.01,NE,45,0.0,0.0,76,0.00,,,0.00,WUHU216HW,2013-09-06 13:35:00,
2013-09-06 09:36:00,59.7,52.1,30.00,NE,45,0.0,0.0,76,0.00,,,0.00,WUHU216HW,2013-09-06 13:36:00,
2013-09-06 09:37:00,69.4,60.3,29.88,North,0,3.5,3.5,73,0.00,,,0.00,WUHU216HW,2013-09-06 13:37:00,
2013-09-06 09:38:00,59.7,52.1,30.00,NE,45,0.0,0.0,76,0.00,,,0.00,WUHU216HW,2013-09-06 13:38:00,
2013-09-06 09:39:00,59.7,52.1,30.00,NE,45,0.0,0.0,76,0.00,,,0.00,WUHU216HW,2013-09-06 13:39:00,
2013-09-06 09:40:00,59.7,52.1,30.00,NE,45,0.0,0.0,76,0.00,,,0.00,WUHU216HW,2013-09-06 13:40:00,
2013-09-06 09:41:00,59.5,52.3,30.00,NNE,23,0.0,0.0,77,0.00,,,0.00,WUHU216HW,2013-09-06 13:41:00,
2013-09-06 09:42:00,69.4,60.3,29.88,North,0,0.0,3.5,74,0.00,,,0.00,WUHU216HW,2013-09-06 13:42:00,
2013-09-06 09:43:00,59.5,52.3,30.01,NNE,23,0.0,0.0,77,0.00,,,0.00,WUHU216HW,2013-09-06 13:43:00,
2013-09-06 09:44:00,59.5,52.3,30.01,NNE,23,0.0,0.0,76,0.00,,,0.00,WUHU216HW,2013-09-06 13:44:00,
2013-09-06 09:45:00,59.5,52.3,30.01,NNE,23,0.0,0.0,76,0.00,,,0.00,WUHU216HW,2013-09-06 13:45:00,
2013-09-06 09:46:00,59.5,52.3,30.01,North,0,0.0,0.0,76,0.00,,,0.00,WUHU216HW,2013-09-06 13:46:00,
2013-09-06 09:47:00,69.9,61.2,29.89,North,0,0.0,3.5,74,0.00,,,0.00,WUHU216HW,2013-09-06 13:47:00,
2013-09-06 09:48:00,59.3,52.1,30.00,North,0,0.0,0.0,77,0.00,,,0.00,WUHU216HW,2013-09-06 13:48:00,
2013-09-06 09:49:00,59.3,52.1,30.01,North,0,0.0,0.0,77,0.00,,,0.00,WUHU216HW,2013-09-06 13:49:00,
2013-09-06 09:50:00,59.3,52.1,30.01,North,0,0.0,0.0,77,0.00,,,0.00,WUHU216HW,2013-09-06 13:50:00,
2013-09-06 09:51:00,59.3,52.1,30.01,North,0,0.0,0.0,77,0.00,,,0.00,WUHU216HW,2013-09-06 13:51:00,
2013-09-06 09:52:00,70.3,61.5,29.89,North,0,0.0,4.0,74,0.00,,,0.00,WUHU216HW,2013-09-06 13:52:00,
2013-09-06 09:53:00,59.3,52.1,30.01,North,0,0.0,0.0,77,0.00,,,0.00,WUHU216HW,2013-09-06 13:53:00,
2013-09-06 09:54:00,59.1,51.9,30.00,North,0,0.0,0.0,77,0.00,,,0.00,WUHU216HW,2013-09-06 13:54:00,
2013-09-06 09:55:00,59.1,51.9,30.01,North,0,0.0,0.0,77,0.00,,,0.00,WUHU216HW,2013-09-06 13:55:00,
2013-09-06 09:56:00,59.1,51.9,30.00,North,0,0.0,0.0,77,0.00,,,0.00,WUHU216HW,2013-09-06 13:56:00,
2013-09-06 09:57:00,70.7,61.9,29.88,NNE,23,0.0,4.0,74,0.00,,,0.00,WUHU216HW,2013-09-06 13:57:00,
2013-09-06 09:58:00,59.1,51.9,30.00,North,0,0.0,0.0,77,0.00,,,0.00,WUHU216HW,2013-09-06 13:58:00,
2013-09-06 09:59:00,59.0,51.8,30.01,North,0,0.0,0.0,77,0.00,,,0.00,WUHU216HW,2013-09-06 13:59:00,
2013-09-06 10:00:00,59.0,51.8,30.01,North,0,0.0,0.0,77,0.00,,,0.00,WUHU216HW,2013-09-06 14:00:00,
2013-09-06 10:01:00,59.0,51.8,30.00,North,0,0.0,0.0,77,0.00,,,0.00,WUHU216HW,2013-09-06 14:01:00,
2013-09-06 10:02:00,71.0,62.6,29.89,ESE,113,2.6,2.6,75,0.00,,,0.00,WUHU216HW,2013-09-06 14:02:00,
2013-09-06 10:03:00,59.0,51.8,30.00,NNE,23,0.0,0.0,77,0.00,,,0.00,WUHU216HW,2013-09-06 14:03:00,
2013-09-06 10:07:00,71.2,62.4,29.88,NNW,338,0.0,2.6,74,0.00,,,0.00,WUHU216HW,2013-09-06 14:07:00,
2013-09-06 10:13:00,71.4,62.6,29.88,NNW,338,0.0,0.0,74,0.00,,,0.00,WUHU216HW,2013-09-06 14:13:00,
2013-09-06 10:18:00,71.7,63.4,29.88,NE,45,0.0,0.0,75,0.00,,,0.00,WUHU216HW,2013-09-06 14:18:00,
2013-09-06 10:20:00,58.8,51.6,30.00,NW,315,0.0,0.0,77,0.00,,,0.00,WUHU216HW,2013-09-06 14:20:00,
2013-09-06 10:21:00,58.8,51.6,30.00,NW,315,0.0,0.0,77,0.00,,,0.00,WUHU216HW,2013-09-06 14:21:00,
2013-09-06 10:22:00,58.8,51.6,30.00,NW,315,0.0,0.0,77,0.00,,,0.00,WUHU216HW,2013-09-06 14:22:00,
2013-09-06 10:23:00,72.1,63.7,29.88,NE,45,0.0,0.0,75,0.00,,,0.00,WUHU216HW,2013-09-06 14:23:00,
2013-09-06 10:24:00,58.6,51.8,30.00,NW,315,0.0,0.0,78,0.00,,,0.00,WUHU216HW,2013-09-06 14:24:00,
2013-09-06 10:25:00,58.6,51.8,30.00,NW,315,0.0,0.0,78,0.00,,,0.00,WUHU216HW,2013-09-06 14:25:00,
2013-09-06 10:27:00,58.6,51.8,30.00,NW,315,0.0,0.0,78,0.00,,,0.00,WUHU216HW,2013-09-06 14:27:00,
2013-09-06 10:28:00,72.6,64.3,29.88,NNW,338,0.0,0.0,75,0.00,,,0.00,WUHU216HW,2013-09-06 14:28:00,
2013-09-06 10:29:00,58.6,51.8,30.00,NW,315,0.0,0.0,77,0.00,,,0.00,WUHU216HW,2013-09-06 14:29:00,
2013-09-06 10:30:00,58.6,51.8,30.00,NW,315,0.0,0.0,77,0.00,,,0.00,WUHU216HW,2013-09-06 14:30:00,
2013-09-06 10:31:00,58.6,51.8,30.00,NW,315,0.0,0.0,78,0.00,,,0.00,WUHU216HW,2013-09-06 14:31:00,
2013-09-06 10:33:00,73.2,64.4,29.88,ENE,68,0.0,0.0,74,0.00,,,0.00,WUHU216HW,2013-09-06 14:33:00,
2013-09-06 10:38:00,73.4,64.6,29.88,NE,45,0.4,0.4,74,0.00,,,0.00,WUHU216HW,2013-09-06 14:38:00,
2013-09-06 10:43:00,73.5,64.8,29.88,NE,45,0.0,0.4,74,0.00,,,0.00,WUHU216HW,2013-09-06 14:43:00,
2013-09-06 10:49:00,74.1,65.3,29.88,NNE,23,0.0,0.6,74,0.00,,,0.00,WUHU216HW,2013-09-06 14:49:00,
2013-09-06 10:54:00,74.4,65.2,29.89,NNW,338,0.0,0.6,73,0.00,,,0.00,WUHU216HW,2013-09-06 14:54:00,
2013-09-06 10:59:00,74.8,65.6,29.89,North,0,0.0,0.0,71,0.00,,,0.00,WUHU216HW,2013-09-06 14:59:00,
2013-09-06 11:04:00,75.3,65.3,29.89,NW,315,0.0,0.0,71,0.00,,,0.00,WUHU216HW,2013-09-06 15:04:00,
2013-09-06 11:09:00,75.9,65.4,29.89,NE,45,0.8,0.8,70,0.00,,,0.00,WUHU216HW,2013-09-06 15:09:00,
2013-09-06 11:14:00,76.4,66.0,29.89,NE,45,0.0,0.8,70,0.00,,,0.00,WUHU216HW,2013-09-06 15:14:00,
2013-09-06 11:19:00,76.8,65.0,29.89,NNW,338,0.0,2.9,67,0.00,,,0.00,WUHU216HW,2013-09-06 15:19:00,
2013-09-06 11:25:00,77.5,65.7,29.90,NNW,338,0.0,2.9,67,0.00,,,0.00,WUHU216HW,2013-09-06 15:25:00,
2013-09-06 11:30:00,78.0,64.8,29.89,NW,315,0.0,0.0,64,0.00,,,0.00,WUHU216HW,2013-09-06 15:30:00,
2013-09-06 11:35:00,78.6,65.4,29.89,ENE,68,0.0,0.0,64,0.00,,,0.00,WUHU216HW,2013-09-06 15:35:00,
2013-09-06 11:40:00,79.1,65.0,29.88,NNW,338,0.0,0.0,62,0.00,,,0.00,WUHU216HW,2013-09-06 15:40:00,
2013-09-06 11:45:00,79.7,65.9,29.89,NNE,23,0.0,0.0,63,0.00,,,0.00,WUHU216HW,2013-09-06 15:45:00,
2013-09-06 11:50:00,80.2,65.1,29.88,NNW,338,0.0,0.0,60,0.00,,,0.00,WUHU216HW,2013-09-06 15:50:00,
2013-09-06 11:53:00,56.8,50.7,29.98,North,0,0.0,0.0,81,0.00,,,0.00,WUHU216HW,2013-09-06 15:53:00,
2013-09-06 11:55:00,80.9,65.8,29.88,NE,45,0.0,0.0,60,0.00,,,0.00,WUHU216HW,2013-09-06 15:55:00,
2013-09-06 11:57:00,56.6,50.8,29.99,North,0,0.0,0.0,81,0.00,,,0.00,WUHU216HW,2013-09-06 15:57:00,
2013-09-06 11:59:00,56.6,50.8,29.99,North,0,0.0,0.0,81,0.00,,,0.00,WUHU216HW,2013-09-06 15:59:00,
2013-09-06 12:00:00,81.6,66.4,29.88,NNW,338,0.0,2.2,60,0.00,,,0.00,WUHU216HW,2013-09-06 16:00:00,
2013-09-06 12:03:00,56.3,50.8,29.98,North,0,0.0,0.0,82,0.00,,,0.00,WUHU216HW,2013-09-06 16:03:00,
2013-09-06 12:05:00,82.0,66.2,29.88,East,90,0.0,2.2,59,0.00,,,0.00,WUHU216HW,2013-09-06 16:05:00,
2013-09-06 12:06:00,56.3,50.8,29.99,North,0,0.0,0.0,82,0.00,,,0.00,WUHU216HW,2013-09-06 16:06:00,
2013-09-06 12:08:00,56.1,50.6,29.99,North,0,0.0,0.0,82,0.00,,,0.00,WUHU216HW,2013-09-06 16:08:00,
2013-09-06 12:10:00,82.4,66.0,29.88,NW,315,0.0,0.8,58,0.00,,,0.00,WUHU216HW,2013-09-06 16:10:00,
2013-09-06 12:12:00,56.1,50.6,29.99,North,0,0.0,0.0,82,0.00,,,0.00,WUHU216HW,2013-09-06 16:12:00,
2013-09-06 12:16:00,82.5,66.7,29.88,North,0,0.0,0.0,59,0.00,,,0.00,WUHU216HW,2013-09-06 16:16:00,
2013-09-06 12:18:00,55.9,50.4,29.98,North,0,0.0,0.0,83,0.00,,,0.00,WUHU216HW,2013-09-06 16:18:00,
2013-09-06 12:19:00,55.9,50.4,29.98,North,0,0.0,0.0,83,0.00,,,0.00,WUHU216HW,2013-09-06 16:19:00,
2013-09-06 12:20:00,55.9,50.4,29.99,North,0,0.0,0.0,83,0.00,,,0.00,WUHU216HW,2013-09-06 16:20:00,
2013-09-06 12:21:00,83.1,66.7,29.88,NW,315,5.3,5.3,58,0.00,,,0.00,WUHU216HW,2013-09-06 16:21:00,
2013-09-06 12:22:00,55.9,50.4,29.98,North,0,0.0,0.0,82,0.00,,,0.00,WUHU216HW,2013-09-06 16:22:00,
2013-09-06 12:23:00,55.7,50.6,29.98,North,0,0.0,0.0,83,0.00,,,0.00,WUHU216HW,2013-09-06 16:23:00,
2013-09-06 12:25:00,55.7,50.6,29.98,North,0,0.0,0.0,83,0.00,,,0.00,WUHU216HW,2013-09-06 16:25:00,
2013-09-06 12:26:00,83.1,66.2,29.88,East,90,0.0,5.3,57,0.00,,,0.00,WUHU216HW,2013-09-06 16:26:00,
2013-09-06 12:27:00,55.7,50.6,29.98,North,0,0.0,0.0,83,0.00,,,0.00,WUHU216HW,2013-09-06 16:27:00,
2013-09-06 12:28:00,55.7,50.6,29.98,North,0,0.0,0.0,83,0.00,,,0.00,WUHU216HW,2013-09-06 16:28:00,
2013-09-06 12:29:00,55.5,50.4,29.98,North,0,0.0,0.0,83,0.00,,,0.00,WUHU216HW,2013-09-06 16:29:00,
2013-09-06 12:30:00,55.5,50.4,29.98,North,0,0.0,0.0,83,0.00,,,0.00,WUHU216HW,2013-09-06 16:30:00,
2013-09-06 12:31:00,83.3,65.3,29.88,NNW,338,0.0,3.5,56,0.00,,,0.00,WUHU216HW,2013-09-06 16:31:00,
2013-09-06 12:32:00,55.5,50.4,29.98,North,0,0.0,0.0,83,0.00,,,0.00,WUHU216HW,2013-09-06 16:32:00,
2013-09-06 12:33:00,55.5,50.4,29.98,North,0,0.0,0.0,83,0.00,,,0.00,WUHU216HW,2013-09-06 16:33:00,
2013-09-06 12:35:00,55.5,50.4,29.98,North,0,0.0,0.0,83,0.00,,,0.00,WUHU216HW,2013-09-06 16:35:00,
2013-09-06 12:36:00,83.4,65.5,29.88,NE,45,1.5,1.5,53,0.00,,,0.00,WUHU216HW,2013-09-06 16:36:00,
2013-09-06 12:41:00,83.4,66.0,29.87,ENE,68,0.0,1.5,56,0.00,,,0.00,WUHU216HW,2013-09-06 16:41:00,
2013-09-06 12:46:00,84.3,64.8,29.87,NNW,338,0.0,1.5,52,0.00,,,0.00,WUHU216HW,2013-09-06 16:46:00,
2013-09-06 12:51:00,84.3,64.8,29.87,NNE,23,0.0,0.0,53,0.00,,,0.00,WUHU216HW,2013-09-06 16:51:00,
2013-09-06 12:56:00,84.9,66.4,29.87,NNE,23,0.0,0.0,54,0.00,,,0.00,WUHU216HW,2013-09-06 16:56:00,
2013-09-06 13:01:00,85.2,66.7,29.87,NE,45,0.0,0.0,52,0.00,,,0.00,WUHU216HW,2013-09-06 17:01:00,
2013-09-06 13:06:00,85.1,65.0,29.87,NE,45,0.0,0.0,51,0.00,,,0.00,WUHU216HW,2013-09-06 17:06:00,
2013-09-06 13:07:00,54.6,49.9,29.98,North,0,0.0,0.0,84,0.00,,,0.00,WUHU216HW,2013-09-06 17:07:00,
2013-09-06 13:08:00,54.6,49.9,29.98,North,0,0.0,0.0,84,0.00,,,0.00,WUHU216HW,2013-09-06 17:08:00,
2013-09-06 13:09:00,54.6,49.9,29.98,North,0,0.0,0.0,84,0.00,,,0.00,WUHU216HW,2013-09-06 17:09:00,
2013-09-06 13:10:00,54.6,49.9,29.98,North,0,0.0,0.0,84,0.00,,,0.00,WUHU216HW,2013-09-06 17:10:00,
2013-09-06 13:11:00,84.5,66.0,29.87,NE,45,0.0,0.0,54,0.00,,,0.00,WUHU216HW,2013-09-06 17:11:00,
2013-09-06 13:12:00,54.6,49.9,29.98,North,0,0.0,0.0,84,0.00,,,0.00,WUHU216HW,2013-09-06 17:12:00,
2013-09-06 13:14:00,54.6,49.9,29.98,North,0,0.0,0.0,84,0.00,,,0.00,WUHU216HW,2013-09-06 17:14:00,
2013-09-06 13:15:00,54.6,49.9,29.98,North,0,0.0,0.0,84,0.00,,,0.00,WUHU216HW,2013-09-06 17:15:00,
2013-09-06 13:17:00,84.9,65.8,29.87,NE,45,0.0,0.0,54,0.00,,,0.00,WUHU216HW,2013-09-06 17:17:00,
2013-09-06 13:19:00,54.5,49.7,29.98,NNW,338,0.0,0.0,84,0.00,,,0.00,WUHU216HW,2013-09-06 17:19:00,
2013-09-06 13:22:00,84.9,65.8,29.87,NNW,338,0.0,5.8,53,0.00,,,0.00,WUHU216HW,2013-09-06 17:22:00,
2013-09-06 13:23:00,54.5,49.7,29.98,NNW,338,0.0,0.0,84,0.00,,,0.00,WUHU216HW,2013-09-06 17:23:00,
2013-09-06 13:24:00,54.5,49.7,29.98,NNW,338,0.0,0.0,84,0.00,,,0.00,WUHU216HW,2013-09-06 17:24:00,
2013-09-06 13:25:00,54.5,49.7,29.98,NNW,338,0.0,0.0,84,0.00,,,0.00,WUHU216HW,2013-09-06 17:25:00,
2013-09-06 13:26:00,54.5,49.7,29.98,NNW,338,0.0,0.0,84,0.00,,,0.00,WUHU216HW,2013-09-06 17:26:00,
2013-09-06 13:27:00,83.8,65.4,29.87,NNW,338,0.0,5.8,54,0.00,,,0.00,WUHU216HW,2013-09-06 17:27:00,
2013-09-06 13:32:00,83.6,65.7,29.86,ENE,68,0.0,2.9,55,0.00,,,0.00,WUHU216HW,2013-09-06 17:32:00,
2013-09-06 13:37:00,84.3,64.8,29.86,East,90,4.6,5.8,52,0.00,,,0.00,WUHU216HW,2013-09-06 17:37:00,
2013-09-06 13:42:00,84.9,66.4,29.86,NE,45,0.0,5.8,54,0.00,,,0.00,WUHU216HW,2013-09-06 17:42:00,
2013-09-06 13:47:00,85.6,67.0,29.86,NE,45,0.0,0.0,54,0.00,,,0.00,WUHU216HW,2013-09-06 17:47:00,
2013-09-06 13:52:00,85.8,65.6,29.86,North,0,0.0,0.0,51,0.00,,,0.00,WUHU216HW,2013-09-06 17:52:00,
2013-09-06 13:57:00,84.7,65.2,29.86,North,0,0.0,0.0,52,0.00,,,0.00,WUHU216HW,2013-09-06 17:57:00,
2013-09-06 14:03:00,85.1,66.0,29.86,NNE,23,0.8,6.0,53,0.00,,,0.00,WUHU216HW,2013-09-06 18:03:00,
2013-09-06 14:06:00,54.1,49.7,29.99,NNW,338,0.0,0.0,85,0.00,,,0.00,WUHU216HW,2013-09-06 18:06:00,
2013-09-06 14:07:00,54.1,49.7,29.98,NNW,338,0.0,0.0,85,0.00,,,0.00,WUHU216HW,2013-09-06 18:07:00,
2013-09-06 14:08:00,85.6,66.0,29.86,NNE,23,0.0,6.0,52,0.00,,,0.00,WUHU216HW,2013-09-06 18:08:00,
2013-09-06 14:09:00,53.9,49.5,29.99,NNW,338,0.0,0.0,85,0.00,,,0.00,WUHU216HW,2013-09-06 18:09:00,
2013-09-06 14:10:00,53.9,49.5,29.99,NNW,338,0.0,0.0,85,0.00,,,0.00,WUHU216HW,2013-09-06 18:10:00,
2013-09-06 14:12:00,53.9,49.5,29.99,NNW,338,0.0,0.0,85,0.00,,,0.00,WUHU216HW,2013-09-06 18:12:00,
2013-09-06 14:13:00,84.9,65.8,29.85,SE,135,0.0,0.8,54,0.00,,,0.00,WUHU216HW,2013-09-06 18:13:00,
2013-09-06 14:14:00,53.7,49.3,29.99,NNW,338,0.0,0.0,85,0.00,,,0.00,WUHU216HW,2013-09-06 18:14:00,
2013-09-06 14:15:00,53.7,49.3,29.99,NNW,338,0.0,0.0,85,0.00,,,0.00,WUHU216HW,2013-09-06 18:15:00,
2013-09-06 14:16:00,53.7,49.3,29.98,NNW,338,0.0,0.0,85,0.00,,,0.00,WUHU216HW,2013-09-06 18:16:00,
2013-09-06 14:18:00,84.5,65.5,29.85,NNW,338,0.0,0.6,53,0.00,,,0.00,WUHU216HW,2013-09-06 18:18:00,
2013-09-06 14:19:00,53.7,49.3,29.99,NNW,338,0.0,0.0,86,0.00,,,0.00,WUHU216HW,2013-09-06 18:19:00,
2013-09-06 14:20:00,53.7,49.3,29.99,NNW,338,0.0,0.0,86,0.00,,,0.00,WUHU216HW,2013-09-06 18:20:00,
2013-09-06 14:21:00,53.7,49.3,29.99,NNW,338,0.0,0.0,86,0.00,,,0.00,WUHU216HW,2013-09-06 18:21:00,
2013-09-06 14:23:00,83.4,64.5,29.85,SE,135,0.0,0.0,53,0.00,,,0.00,WUHU216HW,2013-09-06 18:23:00,
2013-09-06 14:25:00,53.7,49.3,29.98,NNW,338,0.0,0.0,86,0.00,,,0.00,WUHU216HW,2013-09-06 18:25:00,
2013-09-06 14:26:00,53.7,49.3,29.98,NNW,338,0.0,0.0,86,0.00,,,0.00,WUHU216HW,2013-09-06 18:26:00,
2013-09-06 14:27:00,53.7,49.3,29.98,NNW,338,0.0,0.0,86,0.00,,,0.00,WUHU216HW,2013-09-06 18:27:00,
2013-09-06 14:28:00,83.1,64.6,29.85,NNE,23,0.0,0.0,54,0.00,,,0.00,WUHU216HW,2013-09-06 18:28:00,
2013-09-06 14:29:00,53.6,49.4,29.99,NNW,338,0.0,0.0,86,0.00,,,0.00,WUHU216HW,2013-09-06 18:29:00,
2013-09-06 14:31:00,53.6,49.4,29.98,NNW,338,0.0,0.0,86,0.00,,,0.00,WUHU216HW,2013-09-06 18:31:00,
2013-09-06 14:32:00,53.6,49.4,29.98,NNW,338,0.0,0.0,86,0.00,,,0.00,WUHU216HW,2013-09-06 18:32:00,
2013-09-06 14:33:00,83.4,65.0,29.84,East,90,0.0,0.0,54,0.00,,,0.00,WUHU216HW,2013-09-06 18:33:00,
2013-09-06 14:34:00,53.6,49.4,29.99,NNW,338,0.0,0.0,86,0.00,,,0.00,WUHU216HW,2013-09-06 18:34:00,
2013-09-06 14:35:00,53.6,49.4,29.99,NNW,338,0.0,0.0,86,0.00,,,0.00,WUHU216HW,2013-09-06 18:35:00,
2013-09-06 14:38:00,82.9,64.5,29.84,NNW,338,0.0,0.0,54,0.00,,,0.00,WUHU216HW,2013-09-06 18:38:00,
2013-09-06 14:43:00,82.7,64.8,29.84,NNW,338,0.0,0.0,54,0.00,,,0.00,WUHU216HW,2013-09-06 18:43:00,
2013-09-06 14:49:00,82.5,64.6,29.84,NNE,23,0.0,0.0,54,0.00,,,0.00,WUHU216HW,2013-09-06 18:49:00,
2013-09-06 14:54:00,82.5,64.1,29.83,ENE,68,0.0,0.0,54,0.00,,,0.00,WUHU216HW,2013-09-06 18:54:00,
2013-09-06 14:58:00,53.2,49.1,30.00,NNW,338,0.0,0.0,87,0.00,,,0.00,WUHU216HW,2013-09-06 18:58:00,
2013-09-06 14:59:00,82.7,63.8,29.83,NW,315,0.0,0.0,53,0.00,,,0.00,WUHU216HW,2013-09-06 18:59:00,
2013-09-06 15:00:00,53.2,49.1,30.00,NNW,338,0.0,0.0,87,0.00,,,0.00,WUHU216HW,2013-09-06 19:00:00,
2013-09-06 15:01:00,53.2,49.1,30.00,NNW,338,0.0,0.0,87,0.00,,,0.00,WUHU216HW,2013-09-06 19:01:00,
2013-09-06 15:02:00,53.2,49.1,30.00,NNW,338,0.0,0.0,87,0.00,,,0.00,WUHU216HW,2013-09-06 19:02:00,
2013-09-06 15:03:00,53.2,49.1,30.00,NNW,338,0.0,0.0,87,0.00,,,0.00,WUHU216HW,2013-09-06 19:03:00,
2013-09-06 15:04:00,82.5,63.1,29.83,NNW,338,0.0,0.0,52,0.00,,,0.00,WUHU216HW,2013-09-06 19:04:00,
2013-09-06 15:05:00,53.2,49.1,30.00,NNW,338,0.0,0.0,87,0.00,,,0.00,WUHU216HW,2013-09-06 19:05:00,
2013-09-06 15:06:00,53.2,49.1,30.00,NNW,338,0.0,0.0,87,0.00,,,0.00,WUHU216HW,2013-09-06 19:06:00,
2013-09-06 15:07:00,53.2,49.1,30.00,NNW,338,0.0,0.0,87,0.00,,,0.00,WUHU216HW,2013-09-06 19:07:00,
2013-09-06 15:08:00,53.2,49.1,30.00,NNW,338,0.0,0.0,87,0.00,,,0.00,WUHU216HW,2013-09-06 19:08:00,
2013-09-06 15:09:00,82.4,62.9,29.83,NNE,23,0.0,0.0,53,0.00,,,0.00,WUHU216HW,2013-09-06 19:09:00,
2013-09-06 15:14:00,82.2,64.3,29.83,NNE,23,0.0,0.0,55,0.00,,,0.00,WUHU216HW,2013-09-06 19:14:00,
2013-09-06 15:16:00,53.2,49.1,30.01,NNW,338,0.0,0.0,87,0.00,,,0.00,WUHU216HW,2013-09-06 19:16:00,
2013-09-06 15:17:00,53.2,49.1,30.01,NNW,338,0.0,0.0,87,0.00,,,0.00,WUHU216HW,2013-09-06 19:17:00,
2013-09-06 15:18:00,53.2,49.1,30.01,NNW,338,0.0,0.0,87,0.00,,,0.00,WUHU216HW,2013-09-06 19:18:00,
2013-09-06 15:19:00,82.0,63.1,29.83,NNE,23,0.0,0.0,53,0.00,,,0.00,WUHU216HW,2013-09-06 19:19:00,
2013-09-06 15:20:00,53.2,49.1,30.01,NNW,338,0.0,0.0,87,0.00,,,0.00,WUHU216HW,2013-09-06 19:20:00,
2013-09-06 15:21:00,53.2,49.1,30.01,NNW,338,0.0,0.0,87,0.00,,,0.00,WUHU216HW,2013-09-06 19:21:00,
2013-09-06 15:22:00,53.2,49.1,30.01,NNW,338,0.0,0.0,87,0.00,,,0.00,WUHU216HW,2013-09-06 19:22:00,
2013-09-06 15:23:00,53.2,49.1,30.01,NNW,338,0.0,0.0,87,0.00,,,0.00,WUHU216HW,2013-09-06 19:23:00,
2013-09-06 15:24:00,81.6,62.2,29.82,North,0,0.0,0.0,52,0.00,,,0.00,WUHU216HW,2013-09-06 19:24:00,
2013-09-06 15:25:00,53.2,49.1,30.01,NNW,338,0.0,0.0,86,0.00,,,0.00,WUHU216HW,2013-09-06 19:25:00,
2013-09-06 15:26:00,53.2,49.1,30.01,NNW,338,0.0,0.0,86,0.00,,,0.00,WUHU216HW,2013-09-06 19:26:00,
2013-09-06 15:27:00,53.2,49.1,30.01,NNW,338,0.0,0.0,86,0.00,,,0.00,WUHU216HW,2013-09-06 19:27:00,
2013-09-06 15:28:00,53.2,49.1,30.01,NNW,338,0.0,0.0,87,0.00,,,0.00,WUHU216HW,2013-09-06 19:28:00,
2013-09-06 15:29:00,81.6,62.2,29.82,NE,45,0.0,0.0,52,0.00,,,0.00,WUHU216HW,2013-09-06 19:29:00,
2013-09-06 15:30:00,53.2,49.1,30.01,NNW,338,0.0,0.0,86,0.00,,,0.00,WUHU216HW,2013-09-06 19:30:00,
2013-09-06 15:31:00,53.2,49.1,30.01,NNW,338,0.0,0.0,86,0.00,,,0.00,WUHU216HW,2013-09-06 19:31:00,
2013-09-06 15:32:00,53.2,49.1,30.01,NNW,338,0.0,0.0,86,0.00,,,0.00,WUHU216HW,2013-09-06 19:32:00,
2013-09-06 15:33:00,53.2,49.1,30.01,NNW,338,0.0,0.0,86,0.00,,,0.00,WUHU216HW,2013-09-06 19:33:00,
2013-09-06 15:34:00,82.0,62.6,29.82,NNW,338,0.0,0.0,52,0.00,,,0.00,WUHU216HW,2013-09-06 19:34:00,
2013-09-06 15:35:00,53.2,49.1,30.01,NNW,338,0.0,0.0,87,0.00,,,0.00,WUHU216HW,2013-09-06 19:35:00,
2013-09-06 15:39:00,82.0,63.1,29.82,NNE,23,0.0,0.0,53,0.00,,,0.00,WUHU216HW,2013-09-06 19:39:00,
2013-09-06 15:45:00,82.0,63.1,29.82,North,0,1.1,1.1,53,0.00,,,0.00,WUHU216HW,2013-09-06 19:45:00,
2013-09-06 15:50:00,81.6,63.8,29.82,NW,315,0.0,1.1,55,0.00,,,0.00,WUHU216HW,2013-09-06 19:50:00,
2013-09-06 15:55:00,81.3,63.5,29.81,NNW,338,0.0,0.0,56,0.00,,,0.00,WUHU216HW,2013-09-06 19:55:00,
2013-09-06 16:00:00,80.9,63.7,29.81,NNE,23,0.0,0.0,56,0.00,,,0.00,WUHU216HW,2013-09-06 20:00:00,
2013-09-06 16:05:00,80.7,63.5,29.81,North,0,0.0,0.0,56,0.00,,,0.00,WUHU216HW,2013-09-06 20:05:00,
2013-09-06 16:10:00,80.6,62.8,29.81,NNE,23,0.0,0.0,55,0.00,,,0.00,WUHU216HW,2013-09-06 20:10:00,
2013-09-06 16:12:00,53.7,49.9,30.01,North,0,0.0,0.0,87,0.00,,,0.00,WUHU216HW,2013-09-06 20:12:00,
2013-09-06 16:15:00,80.4,62.7,29.81,North,0,0.0,0.0,56,0.00,,,0.00,WUHU216HW,2013-09-06 20:15:00,
2013-09-06 16:16:00,53.9,50.1,30.01,WNW,293,0.0,0.0,87,0.00,,,0.00,WUHU216HW,2013-09-06 20:16:00,
2013-09-06 16:18:00,54.1,50.3,30.01,NW,315,0.0,0.0,87,0.00,,,0.00,WUHU216HW,2013-09-06 20:18:00,
2013-09-06 16:20:00,80.2,62.5,29.81,East,90,0.0,0.0,56,0.00,,,0.00,WUHU216HW,2013-09-06 20:20:00,
2013-09-06 16:21:00,54.1,50.3,30.01,NW,315,0.0,0.0,87,0.00,,,0.00,WUHU216HW,2013-09-06 20:21:00,
2013-09-06 16:22:00,54.1,50.3,30.01,NW,315,0.0,0.0,87,0.00,,,0.00,WUHU216HW,2013-09-06 20:22:00,
2013-09-06 16:23:00,54.1,50.3,30.01,NW,315,0.0,0.0,87,0.00,,,0.00,WUHU216HW,2013-09-06 20:23:00,
2013-09-06 16:24:00,54.1,50.3,30.01,NW,315,0.0,0.0,87,0.00,,,0.00,WUHU216HW,2013-09-06 20:24:00,
2013-09-06 16:25:00,80.2,62.5,29.81,NNE,23,0.0,0.0,55,0.00,,,0.00,WUHU216HW,2013-09-06 20:25:00,
2013-09-06 16:26:00,54.3,50.5,30.01,NW,315,0.0,0.0,87,0.00,,,0.00,WUHU216HW,2013-09-06 20:26:00,
2013-09-06 16:28:00,54.3,50.5,30.00,NW,315,0.0,0.0,87,0.00,,,0.00,WUHU216HW,2013-09-06 20:28:00,
2013-09-06 16:29:00,54.3,50.5,30.00,NW,315,0.0,0.0,87,0.00,,,0.00,WUHU216HW,2013-09-06 20:29:00,
2013-09-06 16:30:00,80.2,62.5,29.81,NE,45,0.8,0.8,55,0.00,,,0.00,WUHU216HW,2013-09-06 20:30:00,
2013-09-06 16:31:00,54.5,50.6,30.00,NW,315,0.0,0.0,87,0.00,,,0.00,WUHU216HW,2013-09-06 20:31:00,
2013-09-06 16:34:00,54.6,50.8,30.01,NW,315,0.0,0.0,87,0.00,,,0.00,WUHU216HW,2013-09-06 20:34:00,
2013-09-06 16:35:00,79.7,62.5,29.81,NNW,338,0.0,0.8,56,0.00,,,0.00,WUHU216HW,2013-09-06 20:35:00,
2013-09-06 16:36:00,54.6,50.8,30.01,NW,315,0.0,0.0,87,0.00,,,0.00,WUHU216HW,2013-09-06 20:36:00,
2013-09-06 16:37:00,54.6,50.8,30.01,NW,315,0.0,0.0,86,0.00,,,0.00,WUHU216HW,2013-09-06 20:37:00,
2013-09-06 16:40:00,79.5,61.9,29.81,North,0,0.0,0.0,56,0.00,,,0.00,WUHU216HW,2013-09-06 20:40:00,
2013-09-06 16:45:00,79.5,61.9,29.81,North,0,0.0,0.0,56,0.00,,,0.00,WUHU216HW,2013-09-06 20:45:00,
2013-09-06 16:50:00,79.5,61.9,29.81,North,0,0.0,0.0,56,0.00,,,0.00,WUHU216HW,2013-09-06 20:50:00,
2013-09-06 16:55:00,79.5,61.9,29.80,SW,225,0.0,0.0,56,0.00,,,0.00,WUHU216HW,2013-09-06 20:55:00,
2013-09-06 17:00:00,79.7,62.5,29.81,NNW,338,0.0,0.0,56,0.00,,,0.00,WUHU216HW,2013-09-06 21:00:00,
2013-09-06 17:05:00,79.8,62.7,29.80,NE,45,0.0,0.0,55,0.00,,,0.00,WUHU216HW,2013-09-06 21:05:00,
2013-09-06 17:08:00,56.1,51.6,30.01,NNE,23,0.0,0.0,85,0.00,,,0.00,WUHU216HW,2013-09-06 21:08:00,
2013-09-06 17:09:00,56.1,51.6,30.01,NNE,23,0.0,0.0,84,0.00,,,0.00,WUHU216HW,2013-09-06 21:09:00,
2013-09-06 17:10:00,79.7,62.5,29.80,NE,45,0.0,0.0,56,0.00,,,0.00,WUHU216HW,2013-09-06 21:10:00,
2013-09-06 17:12:00,56.3,51.4,30.01,NW,315,0.0,0.0,84,0.00,,,0.00,WUHU216HW,2013-09-06 21:12:00,
2013-09-06 17:13:00,56.4,51.6,30.01,NNW,338,0.0,0.0,84,0.00,,,0.00,WUHU216HW,2013-09-06 21:13:00,
2013-09-06 17:14:00,56.4,51.6,30.01,NNW,338,0.0,0.0,84,0.00,,,0.00,WUHU216HW,2013-09-06 21:14:00,
2013-09-06 17:15:00,79.5,62.4,29.80,North,0,0.0,0.0,56,0.00,,,0.00,WUHU216HW,2013-09-06 21:15:00,
2013-09-06 17:16:00,56.4,51.6,30.01,NNE,23,0.0,0.0,84,0.00,,,0.00,WUHU216HW,2013-09-06 21:16:00,
2013-09-06 17:17:00,56.4,51.6,30.01,NNE,23,0.0,0.0,84,0.00,,,0.00,WUHU216HW,2013-09-06 21:17:00,
2013-09-06 17:18:00,56.8,52.0,30.01,North,0,0.0,0.0,84,0.00,,,0.00,WUHU216HW,2013-09-06 21:18:00,
2013-09-06 17:19:00,56.8,52.0,30.01,North,0,0.0,0.0,84,0.00,,,0.00,WUHU216HW,2013-09-06 21:19:00,
2013-09-06 17:20:00,79.3,62.2,29.80,North,0,0.0,0.0,56,0.00,,,0.00,WUHU216HW,2013-09-06 21:20:00,
2013-09-06 17:26:00,79.1,62.6,29.80,NNE,23,0.0,0.0,57,0.00,,,0.00,WUHU216HW,2013-09-06 21:26:00,
2013-09-06 17:27:00,57.3,51.9,30.01,NNE,23,0.0,0.0,82,0.00,,,0.00,WUHU216HW,2013-09-06 21:27:00,
2013-09-06 17:28:00,57.5,52.0,30.02,NNE,23,0.0,0.0,82,0.00,,,0.00,WUHU216HW,2013-09-06 21:28:00,
2013-09-06 17:29:00,57.5,52.0,30.02,NNE,23,0.0,0.0,82,0.00,,,0.00,WUHU216HW,2013-09-06 21:29:00,
2013-09-06 17:30:00,57.5,52.0,30.02,NNE,23,0.0,0.0,82,0.00,,,0.00,WUHU216HW,2013-09-06 21:30:00,
2013-09-06 17:31:00,79.1,62.6,29.80,NNE,23,0.0,0.0,57,0.00,,,0.00,WUHU216HW,2013-09-06 21:31:00,
2013-09-06 17:32:00,57.7,51.9,30.02,NNE,23,0.0,0.0,81,0.00,,,0.00,WUHU216HW,2013-09-06 21:32:00,
2013-09-06 17:33:00,57.7,51.9,30.02,WNW,293,0.0,0.0,81,0.00,,,0.00,WUHU216HW,2013-09-06 21:33:00,
2013-09-06 17:34:00,57.7,51.9,30.01,WNW,293,0.0,0.0,81,0.00,,,0.00,WUHU216HW,2013-09-06 21:34:00,
2013-09-06 17:35:00,57.9,52.1,30.01,WNW,293,0.0,0.0,81,0.00,,,0.00,WUHU216HW,2013-09-06 21:35:00,
2013-09-06 17:36:00,78.9,62.4,29.80,SW,225,0.0,0.0,57,0.00,,,0.00,WUHU216HW,2013-09-06 21:36:00,
2013-09-06 17:39:00,58.4,52.6,30.02,NW,315,0.0,0.0,81,0.00,,,0.00,WUHU216HW,2013-09-06 21:39:00,
2013-09-06 17:40:00,58.4,52.6,30.02,NW,315,0.0,0.0,81,0.00,,,0.00,WUHU216HW,2013-09-06 21:40:00,
2013-09-06 17:41:00,78.9,62.4,29.80,ENE,68,0.0,0.0,57,0.00,,,0.00,WUHU216HW,2013-09-06 21:41:00,
2013-09-06 17:46:00,78.8,61.7,29.80,NNW,338,0.0,0.0,55,0.00,,,0.00,WUHU216HW,2013-09-06 21:46:00,
2013-09-06 17:51:00,78.6,61.0,29.80,NNW,338,0.0,0.0,55,0.00,,,0.00,WUHU216HW,2013-09-06 21:51:00,
2013-09-06 17:56:00,78.6,61.0,29.80,NE,45,0.0,0.0,55,0.00,,,0.00,WUHU216HW,2013-09-06 21:56:00,
2013-09-06 18:01:00,78.6,61.0,29.80,NNE,23,0.0,0.0,56,0.00,,,0.00,WUHU216HW,2013-09-06 22:01:00,
2013-09-06 18:06:00,78.6,61.0,29.80,NE,45,0.0,0.0,56,0.00,,,0.00,WUHU216HW,2013-09-06 22:06:00,
2013-09-06 18:11:00,78.4,61.4,29.80,NNE,23,0.0,0.0,56,0.00,,,0.00,WUHU216HW,2013-09-06 22:11:00,
2013-09-06 18:12:00,60.4,52.8,30.02,West,270,0.0,0.0,76,0.00,,,0.00,WUHU216HW,2013-09-06 22:12:00,
2013-09-06 18:13:00,60.4,52.8,30.02,West,270,0.0,0.0,76,0.00,,,0.00,WUHU216HW,2013-09-06 22:13:00,
2013-09-06 18:14:00,60.6,53.0,30.02,NW,315,0.0,0.0,76,0.00,,,0.00,WUHU216HW,2013-09-06 22:14:00,
2013-09-06 18:15:00,60.6,53.0,30.02,NW,315,0.0,0.0,76,0.00,,,0.00,WUHU216HW,2013-09-06 22:15:00,
2013-09-06 18:16:00,78.4,60.9,29.80,NNE,23,0.0,0.0,55,0.00,,,0.00,WUHU216HW,2013-09-06 22:16:00,
2013-09-06 18:17:00,60.8,52.8,30.02,NNW,338,0.0,0.0,75,0.00,,,0.00,WUHU216HW,2013-09-06 22:17:00,
2013-09-06 18:18:00,60.9,53.0,30.02,NE,45,0.0,0.0,75,0.00,,,0.00,WUHU216HW,2013-09-06 22:18:00,
2013-09-06 18:19:00,60.9,53.0,30.02,NE,45,0.0,0.0,75,0.00,,,0.00,WUHU216HW,2013-09-06 22:19:00,
2013-09-06 18:20:00,60.9,53.0,30.02,NNW,338,0.0,0.0,74,0.00,,,0.00,WUHU216HW,2013-09-06 22:20:00,
2013-09-06 18:22:00,78.4,60.9,29.80,NNW,338,0.0,0.0,55,0.00,,,0.00,WUHU216HW,2013-09-06 22:22:00,
2013-09-06 18:23:00,61.1,52.8,30.02,NNE,23,0.0,0.0,74,0.00,,,0.00,WUHU216HW,2013-09-06 22:23:00,
2013-09-06 18:24:00,61.1,52.8,30.02,NNE,23,0.0,0.0,74,0.00,,,0.00,WUHU216HW,2013-09-06 22:24:00,
2013-09-06 18:25:00,61.5,53.1,30.02,North,0,0.0,0.0,74,0.00,,,0.00,WUHU216HW,2013-09-06 22:25:00,
2013-09-06 18:27:00,78.4,60.9,29.80,North,0,0.0,0.0,56,0.00,,,0.00,WUHU216HW,2013-09-06 22:27:00,
2013-09-06 18:32:00,78.4,60.9,29.80,NNE,23,0.0,0.0,57,0.00,,,0.00,WUHU216HW,2013-09-06 22:32:00,
2013-09-06 18:37:00,78.0,60.5,29.80,NNW,338,0.0,0.0,55,0.00,,,0.00,WUHU216HW,2013-09-06 22:37:00,
2013-09-06 18:42:00,77.9,60.3,29.80,NNW,338,0.0,0.0,55,0.00,,,0.00,WUHU216HW,2013-09-06 22:42:00,
2013-09-06 18:43:00,62.7,53.6,30.02,North,0,0.0,0.0,72,0.00,,,0.00,WUHU216HW,2013-09-06 22:43:00,
2013-09-06 18:45:00,62.7,53.6,30.02,NE,45,0.0,0.0,72,0.00,,,0.00,WUHU216HW,2013-09-06 22:45:00,
2013-09-06 18:46:00,62.7,53.6,30.02,NE,45,0.0,0.0,71,0.00,,,0.00,WUHU216HW,2013-09-06 22:46:00,
2013-09-06 18:47:00,77.9,60.3,29.80,NNW,338,0.0,0.0,55,0.00,,,0.00,WUHU216HW,2013-09-06 22:47:00,
2013-09-06 18:49:00,62.9,53.4,30.02,North,0,0.0,0.0,71,0.00,,,0.00,WUHU216HW,2013-09-06 22:49:00,
2013-09-06 18:51:00,62.9,53.4,30.02,ENE,68,0.0,0.0,71,0.00,,,0.00,WUHU216HW,2013-09-06 22:51:00,
2013-09-06 18:52:00,77.5,60.0,29.80,NE,45,0.0,0.0,55,0.00,,,0.00,WUHU216HW,2013-09-06 22:52:00,
2013-09-06 18:53:00,63.3,53.7,30.02,ESE,113,0.0,0.0,71,0.00,,,0.00,WUHU216HW,2013-09-06 22:53:00,
2013-09-06 18:54:00,63.3,53.7,30.02,ESE,113,0.0,0.0,71,0.00,,,0.00,WUHU216HW,2013-09-06 22:54:00,
2013-09-06 18:55:00,63.3,53.7,30.02,ENE,68,0.0,0.0,71,0.00,,,0.00,WUHU216HW,2013-09-06 22:55:00,
2013-09-06 18:56:00,63.3,53.7,30.02,ENE,68,0.0,0.0,71,0.00,,,0.00,WUHU216HW,2013-09-06 22:56:00,
2013-09-06 18:57:00,77.5,60.0,29.79,North,0,0.0,0.0,56,0.00,,,0.00,WUHU216HW,2013-09-06 22:57:00,
2013-09-06 18:58:00,63.3,53.7,30.02,South,180,0.0,0.0,70,0.00,,,0.00,WUHU216HW,2013-09-06 22:58:00,
2013-09-06 18:59:00,63.5,53.6,30.02,South,180,0.0,0.0,70,0.00,,,0.00,WUHU216HW,2013-09-06 22:59:00,
2013-09-06 19:00:00,63.5,53.6,30.02,South,180,0.0,0.0,70,0.00,,,0.00,WUHU216HW,2013-09-06 23:00:00,
2013-09-06 19:01:00,63.6,53.3,30.02,NNW,338,0.0,0.0,69,0.00,,,0.00,WUHU216HW,2013-09-06 23:01:00,
2013-09-06 19:02:00,77.5,60.0,29.80,North,0,0.0,0.0,56,0.00,,,0.00,WUHU216HW,2013-09-06 23:02:00,
2013-09-06 19:04:00,63.6,53.3,30.01,NNW,338,0.0,0.0,70,0.00,,,0.00,WUHU216HW,2013-09-06 23:04:00,
2013-09-06 19:05:00,63.6,53.3,30.01,NNW,338,0.0,0.0,70,0.00,,,0.00,WUHU216HW,2013-09-06 23:05:00,
2013-09-06 19:06:00,63.8,53.5,30.02,NNW,338,0.0,0.0,69,0.00,,,0.00,WUHU216HW,2013-09-06 23:06:00,
2013-09-06 19:07:00,77.1,60.2,29.80,North,0,0.0,0.0,56,0.00,,,0.00,WUHU216HW,2013-09-06 23:07:00,
2013-09-06 19:08:00,64.0,53.2,30.02,East,90,0.0,0.0,68,0.00,,,0.00,WUHU216HW,2013-09-06 23:08:00,
2013-09-06 19:12:00,77.1,60.2,29.80,North,0,0.0,0.0,57,0.00,,,0.00,WUHU216HW,2013-09-06 23:12:00,
2013-09-06 19:18:00,76.8,60.3,29.80,North,0,0.0,0.0,57,0.00,,,0.00,WUHU216HW,2013-09-06 23:18:00,
2013-09-06 19:23:00,76.8,60.3,29.80,North,0,0.0,0.0,58,0.00,,,0.00,WUHU216HW,2013-09-06 23:23:00,
2013-09-06 19:27:00,65.8,52.4,30.01,NNE,23,0.0,0.0,62,0.00,,,0.00,WUHU216HW,2013-09-06 23:27:00,
2013-09-06 19:28:00,76.6,60.7,29.80,North,0,0.0,0.0,58,0.00,,,0.00,WUHU216HW,2013-09-06 23:28:00,
2013-09-06 19:29:00,65.8,52.4,30.01,NNE,23,0.0,0.0,63,0.00,,,0.00,WUHU216HW,2013-09-06 23:29:00,
2013-09-06 19:30:00,65.8,52.4,30.02,NNE,23,0.0,0.0,63,0.00,,,0.00,WUHU216HW,2013-09-06 23:30:00,
2013-09-06 19:31:00,65.8,52.4,30.01,NNE,23,0.0,0.0,63,0.00,,,0.00,WUHU216HW,2013-09-06 23:31:00,
2013-09-06 19:32:00,66.2,53.2,30.01,NE,45,0.0,0.0,63,0.00,,,0.00,WUHU216HW,2013-09-06 23:32:00,
2013-09-06 19:33:00,76.2,60.9,29.80,North,0,0.0,0.0,59,0.00,,,0.00,WUHU216HW,2013-09-06 23:33:00,
2013-09-06 19:35:00,66.5,53.1,30.01,South,180,0.0,0.0,62,0.00,,,0.00,WUHU216HW,2013-09-06 23:35:00,
2013-09-06 19:36:00,66.7,52.8,30.01,NNW,338,0.0,0.0,61,0.00,,,0.00,WUHU216HW,2013-09-06 23:36:00,
2013-09-06 19:37:00,66.7,52.8,30.01,NNW,338,0.0,0.0,61,0.00,,,0.00,WUHU216HW,2013-09-06 23:37:00,
2013-09-06 19:38:00,76.1,60.7,29.81,North,0,0.0,0.0,59,0.00,,,0.00,WUHU216HW,2013-09-06 23:38:00,
2013-09-06 19:43:00,75.9,61.0,29.81,North,0,0.0,0.0,60,0.00,,,0.00,WUHU216HW,2013-09-06 23:43:00,
2013-09-06 19:48:00,75.5,61.2,29.81,North,0,0.0,0.0,61,0.00,,,0.00,WUHU216HW,2013-09-06 23:48:00,
2013-09-06 19:53:00,75.3,61.4,29.81,North,0,0.0,0.0,63,0.00,,,0.00,WUHU216HW,2013-09-06 23:53:00,
2013-09-06 19:56:00,69.2,53.8,30.01,East,90,0.0,0.0,58,0.00,,,0.00,WUHU216HW,2013-09-06 23:56:00,
2013-09-06 19:57:00,69.4,54.5,30.00,ESE,113,0.0,0.0,59,0.00,,,0.00,WUHU216HW,2013-09-06 23:57:00,
2013-09-06 19:58:00,75.0,61.5,29.81,North,0,0.0,0.0,63,0.00,,,0.00,WUHU216HW,2013-09-06 23:58:00,
2013-09-06 20:01:00,69.6,54.2,30.00,ESE,113,0.0,0.0,58,0.00,,,0.00,WUHU216HW,2013-09-07 00:01:00,
2013-09-06 20:02:00,70.1,54.2,30.00,ESE,113,0.0,0.0,57,0.00,,,0.00,WUHU216HW,2013-09-07 00:02:00,
2013-09-06 20:03:00,74.8,61.3,29.81,North,0,0.0,0.0,63,0.00,,,0.00,WUHU216HW,2013-09-07 00:03:00,
2013-09-06 20:04:00,70.3,54.3,30.00,NW,315,0.0,0.0,57,0.00,,,0.00,WUHU216HW,2013-09-07 00:04:00,
2013-09-06 20:05:00,70.3,54.3,30.00,NW,315,0.0,0.0,57,0.00,,,0.00,WUHU216HW,2013-09-07 00:05:00,
2013-09-06 20:06:00,70.5,54.5,30.00,North,0,0.0,0.0,57,0.00,,,0.00,WUHU216HW,2013-09-07 00:06:00,
2013-09-06 20:07:00,70.5,54.5,30.00,North,0,0.0,0.0,57,0.00,,,0.00,WUHU216HW,2013-09-07 00:07:00,
2013-09-06 20:08:00,74.4,61.0,29.81,North,0,0.0,0.0,63,0.00,,,0.00,WUHU216HW,2013-09-07 00:08:00,
2013-09-06 20:09:00,70.5,54.5,30.00,North,0,0.0,0.0,56,0.00,,,0.00,WUHU216HW,2013-09-07 00:09:00,
2013-09-06 20:10:00,70.7,54.7,30.00,East,90,0.0,0.0,57,0.00,,,0.00,WUHU216HW,2013-09-07 00:10:00,
2013-09-06 20:11:00,70.7,54.7,29.99,East,90,0.0,0.0,57,0.00,,,0.00,WUHU216HW,2013-09-07 00:11:00,
2013-09-06 20:12:00,70.7,54.7,29.99,East,90,0.0,0.0,57,0.00,,,0.00,WUHU216HW,2013-09-07 00:12:00,
2013-09-06 20:13:00,74.3,61.3,29.81,North,0,0.0,0.0,64,0.00,,,0.00,WUHU216HW,2013-09-07 00:13:00,
2013-09-06 20:14:00,71.2,55.1,29.99,NE,45,0.0,0.0,57,0.00,,,0.00,WUHU216HW,2013-09-07 00:14:00,
2013-09-06 20:15:00,71.2,55.1,29.99,NE,45,0.0,0.0,57,0.00,,,0.00,WUHU216HW,2013-09-07 00:15:00,
2013-09-06 20:16:00,71.2,55.1,29.99,NE,45,0.0,0.0,57,0.00,,,0.00,WUHU216HW,2013-09-07 00:16:00,
2013-09-06 20:17:00,71.2,55.1,29.99,NW,315,0.0,0.0,56,0.00,,,0.00,WUHU216HW,2013-09-07 00:17:00,
2013-09-06 20:18:00,73.9,60.9,29.82,North,0,0.0,0.0,64,0.00,,,0.00,WUHU216HW,2013-09-07 00:18:00,
2013-09-06 20:19:00,71.2,55.1,29.99,ESE,113,0.0,0.0,56,0.00,,,0.00,WUHU216HW,2013-09-07 00:19:00,
2013-09-06 20:20:00,71.2,55.1,29.99,ESE,113,0.0,0.0,56,0.00,,,0.00,WUHU216HW,2013-09-07 00:20:00,
2013-09-06 20:21:00,71.2,55.1,29.99,NW,315,0.0,0.0,56,0.00,,,0.00,WUHU216HW,2013-09-07 00:21:00,
2013-09-06 20:22:00,71.2,55.1,29.99,NW,315,0.0,0.0,56,0.00,,,0.00,WUHU216HW,2013-09-07 00:22:00,
2013-09-06 20:23:00,73.9,60.9,29.82,North,0,0.0,0.0,64,0.00,,,0.00,WUHU216HW,2013-09-07 00:23:00,
2013-09-06 20:24:00,71.2,55.1,29.98,ESE,113,0.0,0.0,55,0.00,,,0.00,WUHU216HW,2013-09-07 00:24:00,
2013-09-06 20:25:00,71.6,54.5,29.98,NNW,338,0.0,0.0,55,0.00,,,0.00,WUHU216HW,2013-09-07 00:25:00,
2013-09-06 20:26:00,71.6,54.5,29.98,NNW,338,0.0,0.0,55,0.00,,,0.00,WUHU216HW,2013-09-07 00:26:00,
2013-09-06 20:27:00,71.6,54.5,29.98,NNW,338,0.0,0.0,55,0.00,,,0.00,WUHU216HW,2013-09-07 00:27:00,
2013-09-06 20:28:00,73.7,61.2,29.82,North,0,0.0,0.0,65,0.00,,,0.00,WUHU216HW,2013-09-07 00:28:00,
2013-09-06 20:29:00,71.7,54.1,29.98,NE,45,0.0,0.0,54,0.00,,,0.00,WUHU216HW,2013-09-07 00:29:00,
2013-09-06 20:30:00,71.9,54.8,29.98,NNE,23,0.0,0.0,55,0.00,,,0.00,WUHU216HW,2013-09-07 00:30:00,
2013-09-06 20:31:00,71.9,54.8,29.98,NNE,23,0.0,0.0,55,0.00,,,0.00,WUHU216HW,2013-09-07 00:31:00,
2013-09-06 20:32:00,72.1,53.9,29.98,NNE,23,0.0,0.0,53,0.00,,,0.00,WUHU216HW,2013-09-07 00:32:00,
2013-09-06 20:33:00,73.2,60.7,29.82,North,0,0.0,0.0,65,0.00,,,0.00,WUHU216HW,2013-09-07 00:33:00,
2013-09-06 20:34:00,72.3,53.6,29.98,NE,45,0.0,0.0,52,0.00,,,0.00,WUHU216HW,2013-09-07 00:34:00,
2013-09-06 20:35:00,72.3,53.6,29.98,NE,45,0.0,0.0,52,0.00,,,0.00,WUHU216HW,2013-09-07 00:35:00,
2013-09-06 20:36:00,72.3,53.6,29.98,NNE,23,0.0,0.0,53,0.00,,,0.00,WUHU216HW,2013-09-07 00:36:00,
2013-09-06 20:37:00,72.3,53.6,29.98,NNE,23,0.0,0.0,53,0.00,,,0.00,WUHU216HW,2013-09-07 00:37:00,
2013-09-06 20:38:00,72.6,53.9,29.98,North,0,0.0,0.0,52,0.00,,,0.00,WUHU216HW,2013-09-07 00:38:00,
2013-09-06 20:39:00,73.0,60.5,29.82,North,0,0.0,0.0,65,0.00,,,0.00,WUHU216HW,2013-09-07 00:39:00,
2013-09-06 20:40:00,72.6,53.9,29.98,North,0,0.0,0.0,52,0.00,,,0.00,WUHU216HW,2013-09-07 00:40:00,
2013-09-06 20:41:00,73.0,52.0,29.98,ESE,113,0.0,0.0,48,0.00,,,0.00,WUHU216HW,2013-09-07 00:41:00,
2013-09-06 20:42:00,73.0,52.0,29.98,ESE,113,0.0,0.0,48,0.00,,,0.00,WUHU216HW,2013-09-07 00:42:00,
2013-09-06 20:44:00,73.0,60.5,29.82,North,0,0.0,0.0,65,0.00,,,0.00,WUHU216HW,2013-09-07 00:44:00,
2013-09-06 20:49:00,72.6,60.6,29.82,North,0,0.0,0.0,66,0.00,,,0.00,WUHU216HW,2013-09-07 00:49:00,
2013-09-06 20:54:00,72.6,60.6,29.82,North,0,0.0,0.0,66,0.00,,,0.00,WUHU216HW,2013-09-07 00:54:00,
2013-09-06 20:59:00,72.5,60.4,29.82,North,0,0.0,0.0,66,0.00,,,0.00,WUHU216HW,2013-09-07 00:59:00,
2013-09-06 21:04:00,72.3,60.7,29.82,North,0,0.0,0.0,67,0.00,,,0.00,WUHU216HW,2013-09-07 01:04:00,
2013-09-06 21:06:00,75.7,54.0,29.97,ENE,68,0.0,0.0,47,0.00,,,0.00,WUHU216HW,2013-09-07 01:06:00,
2013-09-06 21:07:00,75.7,54.0,29.97,ENE,68,0.0,0.0,47,0.00,,,0.00,WUHU216HW,2013-09-07 01:07:00,
2013-09-06 21:08:00,75.7,54.0,29.97,ENE,68,0.0,0.0,47,0.00,,,0.00,WUHU216HW,2013-09-07 01:08:00,
2013-09-06 21:09:00,72.1,60.5,29.82,North,0,0.0,0.0,67,0.00,,,0.00,WUHU216HW,2013-09-07 01:09:00,
2013-09-06 21:10:00,76.4,54.7,29.97,North,0,0.0,0.0,47,0.00,,,0.00,WUHU216HW,2013-09-07 01:10:00,
2013-09-06 21:11:00,76.4,54.7,29.97,North,0,0.0,0.0,47,0.00,,,0.00,WUHU216HW,2013-09-07 01:11:00,
2013-09-06 21:12:00,76.4,54.7,29.97,North,0,0.0,0.0,47,0.00,,,0.00,WUHU216HW,2013-09-07 01:12:00,
2013-09-06 21:13:00,76.6,54.8,29.97,NNE,23,0.0,0.0,47,0.00,,,0.00,WUHU216HW,2013-09-07 01:13:00,
2013-09-06 21:14:00,71.7,60.6,29.82,North,0,0.0,0.0,68,0.00,,,0.00,WUHU216HW,2013-09-07 01:14:00,
2013-09-06 21:15:00,76.6,54.8,29.97,North,0,0.0,0.0,47,0.00,,,0.00,WUHU216HW,2013-09-07 01:15:00,
2013-09-06 21:16:00,76.6,54.8,29.97,North,0,0.0,0.0,47,0.00,,,0.00,WUHU216HW,2013-09-07 01:16:00,
2013-09-06 21:17:00,76.8,55.6,29.97,ENE,68,0.0,0.0,48,0.00,,,0.00,WUHU216HW,2013-09-07 01:17:00,
2013-09-06 21:18:00,76.8,55.6,29.97,ENE,68,0.0,0.0,48,0.00,,,0.00,WUHU216HW,2013-09-07 01:18:00,
2013-09-06 21:19:00,71.6,60.4,29.82,North,0,0.0,0.0,68,0.00,,,0.00,WUHU216HW,2013-09-07 01:19:00,
2013-09-06 21:20:00,77.1,54.7,29.97,ENE,68,0.0,0.0,46,0.00,,,0.00,WUHU216HW,2013-09-07 01:20:00,
2013-09-06 21:21:00,77.3,55.5,29.97,NW,315,0.0,0.0,47,0.00,,,0.00,WUHU216HW,2013-09-07 01:21:00,
2013-09-06 21:22:00,77.3,55.5,29.97,NW,315,0.0,0.0,47,0.00,,,0.00,WUHU216HW,2013-09-07 01:22:00,
2013-09-06 21:23:00,77.3,55.5,29.97,East,90,0.0,0.0,43,0.00,,,0.00,WUHU216HW,2013-09-07 01:23:00,
2013-09-06 21:24:00,71.4,60.3,29.82,North,0,0.0,0.0,68,0.00,,,0.00,WUHU216HW,2013-09-07 01:24:00,
2013-09-06 21:25:00,77.3,55.5,29.97,East,90,0.0,0.0,43,0.00,,,0.00,WUHU216HW,2013-09-07 01:25:00,
2013-09-06 21:26:00,77.3,55.5,29.96,WNW,293,2.6,2.6,45,0.00,,,0.00,WUHU216HW,2013-09-07 01:26:00,
2013-09-06 21:27:00,77.5,54.4,29.96,NNE,23,0.0,2.6,45,0.00,,,0.00,WUHU216HW,2013-09-07 01:27:00,
2013-09-06 21:28:00,77.5,54.4,29.96,NNE,23,0.0,2.6,45,0.00,,,0.00,WUHU216HW,2013-09-07 01:28:00,
2013-09-06 21:29:00,71.2,60.1,29.83,North,0,0.0,0.0,69,0.00,,,0.00,WUHU216HW,2013-09-07 01:29:00,
2013-09-06 21:30:00,77.5,54.4,29.96,NNE,23,0.0,2.6,45,0.00,,,0.00,WUHU216HW,2013-09-07 01:30:00,
2013-09-06 21:31:00,77.5,54.4,29.96,NNE,23,0.0,2.6,45,0.00,,,0.00,WUHU216HW,2013-09-07 01:31:00,
2013-09-06 21:32:00,77.5,54.4,29.96,North,0,0.0,2.6,45,0.00,,,0.00,WUHU216HW,2013-09-07 01:32:00,
2013-09-06 21:33:00,77.5,54.4,29.96,North,0,0.0,2.6,45,0.00,,,0.00,WUHU216HW,2013-09-07 01:33:00,
2013-09-06 21:34:00,71.0,60.3,29.82,North,0,0.0,0.0,69,0.00,,,0.00,WUHU216HW,2013-09-07 01:34:00,
2013-09-06 21:35:00,77.7,55.2,29.97,NNW,338,0.0,2.6,46,0.00,,,0.00,WUHU216HW,2013-09-07 01:35:00,
2013-09-06 21:36:00,77.9,54.7,29.96,NNW,338,0.0,2.6,45,0.00,,,0.00,WUHU216HW,2013-09-07 01:36:00,
2013-09-06 21:37:00,77.9,54.7,29.96,NNW,338,0.0,0.0,45,0.00,,,0.00,WUHU216HW,2013-09-07 01:37:00,
2013-09-06 21:38:00,78.0,54.9,29.96,North,0,0.0,0.0,45,0.00,,,0.00,WUHU216HW,2013-09-07 01:38:00,
2013-09-06 21:39:00,70.8,60.6,29.82,North,0,0.0,0.0,72,0.00,,,0.00,WUHU216HW,2013-09-07 01:39:00,
2013-09-06 21:41:00,78.0,54.9,29.96,East,90,0.0,0.0,45,0.00,,,0.00,WUHU216HW,2013-09-07 01:41:00,
2013-09-06 21:42:00,78.0,54.9,29.96,East,90,0.0,0.0,45,0.00,,,0.00,WUHU216HW,2013-09-07 01:42:00,
2013-09-06 21:43:00,78.4,54.6,29.96,East,90,0.0,0.0,44,0.00,,,0.00,WUHU216HW,2013-09-07 01:43:00,
2013-09-06 21:44:00,70.5,60.6,29.83,North,0,0.0,0.0,71,0.00,,,0.00,WUHU216HW,2013-09-07 01:44:00,
2013-09-06 21:45:00,78.4,54.6,29.96,North,0,0.0,0.0,44,0.00,,,0.00,WUHU216HW,2013-09-07 01:45:00,
2013-09-06 21:46:00,78.4,54.6,29.96,North,0,0.0,0.0,44,0.00,,,0.00,WUHU216HW,2013-09-07 01:46:00,
2013-09-06 21:49:00,70.5,60.6,29.83,North,0,0.0,0.0,71,0.00,,,0.00,WUHU216HW,2013-09-07 01:49:00,
2013-09-06 21:50:00,78.4,54.6,29.95,NNW,338,0.0,0.0,44,0.00,,,0.00,WUHU216HW,2013-09-07 01:50:00,
2013-09-06 21:51:00,78.4,54.6,29.95,NW,315,0.0,0.0,44,0.00,,,0.00,WUHU216HW,2013-09-07 01:51:00,
2013-09-06 21:52:00,78.4,54.6,29.95,NW,315,0.0,0.0,44,0.00,,,0.00,WUHU216HW,2013-09-07 01:52:00,
2013-09-06 21:53:00,78.6,55.4,29.95,NNW,338,0.0,0.0,45,0.00,,,0.00,WUHU216HW,2013-09-07 01:53:00,
2013-09-06 21:54:00,70.3,60.4,29.84,North,0,0.0,0.0,71,0.00,,,0.00,WUHU216HW,2013-09-07 01:54:00,
2013-09-06 21:55:00,78.6,55.4,29.95,NNW,338,0.0,0.0,45,0.00,,,0.00,WUHU216HW,2013-09-07 01:55:00,
2013-09-06 21:57:00,78.6,55.4,29.95,ENE,68,0.0,0.0,45,0.00,,,0.00,WUHU216HW,2013-09-07 01:57:00,
2013-09-06 21:58:00,78.9,55.7,29.95,NNE,23,0.0,0.0,45,0.00,,,0.00,WUHU216HW,2013-09-07 01:58:00,
2013-09-06 21:59:00,70.3,60.4,29.84,North,0,0.0,0.0,72,0.00,,,0.00,WUHU216HW,2013-09-07 01:59:00,
2013-09-06 22:00:00,79.3,55.4,29.95,NNE,23,0.0,0.0,44,0.00,,,0.00,WUHU216HW,2013-09-07 02:00:00,
2013-09-06 22:01:00,79.3,55.4,29.95,NNE,23,0.0,0.0,44,0.00,,,0.00,WUHU216HW,2013-09-07 02:01:00,
2013-09-06 22:02:00,79.3,55.4,29.95,ESE,113,0.0,0.0,44,0.00,,,0.00,WUHU216HW,2013-09-07 02:02:00,
2013-09-06 22:03:00,79.3,55.4,29.95,ESE,113,0.0,0.0,44,0.00,,,0.00,WUHU216HW,2013-09-07 02:03:00,
2013-09-06 22:04:00,70.3,60.4,29.84,North,0,0.0,0.0,73,0.00,,,0.00,WUHU216HW,2013-09-07 02:04:00,
2013-09-06 22:05:00,79.1,55.2,29.95,NW,315,0.0,0.0,44,0.00,,,0.00,WUHU216HW,2013-09-07 02:05:00,
2013-09-06 22:06:00,79.1,55.2,29.95,NW,315,0.0,0.0,44,0.00,,,0.00,WUHU216HW,2013-09-07 02:06:00,
2013-09-06 22:09:00,70.1,61.0,29.84,North,0,0.0,0.0,73,0.00,,,0.00,WUHU216HW,2013-09-07 02:09:00,
2013-09-06 22:14:00,69.9,60.8,29.84,North,0,0.0,0.0,74,0.00,,,0.00,WUHU216HW,2013-09-07 02:14:00,
2013-09-06 22:15:00,78.6,54.8,29.94,NE,45,0.0,0.0,44,0.00,,,0.00,WUHU216HW,2013-09-07 02:15:00,
2013-09-06 22:16:00,78.6,54.8,29.94,NE,45,0.0,0.0,44,0.00,,,0.00,WUHU216HW,2013-09-07 02:16:00,
2013-09-06 22:17:00,78.6,54.8,29.94,North,0,0.0,0.0,44,0.00,,,0.00,WUHU216HW,2013-09-07 02:17:00,
2013-09-06 22:19:00,69.6,60.8,29.84,North,0,0.0,0.0,74,0.00,,,0.00,WUHU216HW,2013-09-07 02:19:00,
2013-09-06 22:20:00,78.6,54.8,29.94,NNE,23,0.0,0.0,44,0.00,,,0.00,WUHU216HW,2013-09-07 02:20:00,
2013-09-06 22:21:00,78.4,54.0,29.94,NNE,23,0.0,0.0,43,0.00,,,0.00,WUHU216HW,2013-09-07 02:21:00,
2013-09-06 22:22:00,78.4,54.0,29.94,NNE,23,0.0,0.0,43,0.00,,,0.00,WUHU216HW,2013-09-07 02:22:00,
2013-09-06 22:23:00,78.4,54.0,29.94,NE,45,0.0,0.0,43,0.00,,,0.00,WUHU216HW,2013-09-07 02:23:00,
2013-09-06 22:24:00,69.6,60.8,29.84,North,0,0.0,0.0,74,0.00,,,0.00,WUHU216HW,2013-09-07 02:24:00,
2013-09-06 22:25:00,78.4,54.0,29.94,NE,45,0.0,0.0,43,0.00,,,0.00,WUHU216HW,2013-09-07 02:25:00,
2013-09-06 22:26:00,78.4,54.0,29.94,NNW,338,0.0,0.0,44,0.00,,,0.00,WUHU216HW,2013-09-07 02:26:00,
2013-09-06 22:27:00,78.4,54.0,29.94,NNW,338,0.0,0.0,44,0.00,,,0.00,WUHU216HW,2013-09-07 02:27:00,
2013-09-06 22:28:00,77.9,54.1,29.94,WNW,293,0.0,0.0,44,0.00,,,0.00,WUHU216HW,2013-09-07 02:28:00,
2013-09-06 22:29:00,69.4,61.1,29.84,North,0,0.0,0.0,75,0.00,,,0.00,WUHU216HW,2013-09-07 02:29:00,
2013-09-06 22:30:00,77.5,52.6,29.94,NNW,338,0.0,0.0,42,0.00,,,0.00,WUHU216HW,2013-09-07 02:30:00,
2013-09-06 22:31:00,77.5,52.6,29.94,NNW,338,0.0,0.0,42,0.00,,,0.00,WUHU216HW,2013-09-07 02:31:00,
2013-09-06 22:32:00,77.1,53.5,29.94,NNW,338,0.0,0.0,44,0.00,,,0.00,WUHU216HW,2013-09-07 02:32:00,
2013-09-06 22:33:00,77.1,53.5,29.94,NNW,338,0.0,0.0,44,0.00,,,0.00,WUHU216HW,2013-09-07 02:33:00,
2013-09-06 22:34:00,69.4,61.1,29.84,North,0,0.0,0.0,75,0.00,,,0.00,WUHU216HW,2013-09-07 02:34:00,
2013-09-06 22:35:00,77.1,53.5,29.94,NNW,338,0.0,0.0,44,0.00,,,0.00,WUHU216HW,2013-09-07 02:35:00,
2013-09-06 22:39:00,69.4,61.1,29.84,North,0,0.0,0.0,75,0.00,,,0.00,WUHU216HW,2013-09-07 02:39:00,
2013-09-06 22:44:00,69.0,60.7,29.85,North,0,0.0,0.0,75,0.00,,,0.00,WUHU216HW,2013-09-07 02:44:00,
2013-09-06 22:49:00,69.0,60.7,29.84,North,0,0.0,0.0,76,0.00,,,0.00,WUHU216HW,2013-09-07 02:49:00,
2013-09-06 22:50:00,75.5,53.2,29.93,NNE,23,0.0,0.0,46,0.00,,,0.00,WUHU216HW,2013-09-07 02:50:00,
2013-09-06 22:51:00,75.5,53.2,29.93,NNE,23,0.0,0.0,46,0.00,,,0.00,WUHU216HW,2013-09-07 02:51:00,
2013-09-06 22:52:00,75.7,53.4,29.93,ENE,68,0.0,0.0,46,0.00,,,0.00,WUHU216HW,2013-09-07 02:52:00,
2013-09-06 22:53:00,75.7,53.4,29.93,NE,45,0.0,0.0,46,0.00,,,0.00,WUHU216HW,2013-09-07 02:53:00,
2013-09-06 22:54:00,75.7,53.4,29.93,NE,45,0.0,0.0,46,0.00,,,0.00,WUHU216HW,2013-09-07 02:54:00,
2013-09-06 22:55:00,69.0,60.7,29.85,North,0,0.0,0.0,76,0.00,,,0.00,WUHU216HW,2013-09-07 02:55:00,
2013-09-06 22:56:00,75.5,52.6,29.92,NW,315,0.0,0.0,45,0.00,,,0.00,WUHU216HW,2013-09-07 02:56:00,
2013-09-06 22:57:00,75.5,52.6,29.92,NW,315,0.0,0.0,45,0.00,,,0.00,WUHU216HW,2013-09-07 02:57:00,
2013-09-06 22:58:00,75.3,53.1,29.93,NW,315,0.0,0.0,46,0.00,,,0.00,WUHU216HW,2013-09-07 02:58:00,
2013-09-06 22:59:00,74.8,52.6,29.93,North,0,0.0,0.0,46,0.00,,,0.00,WUHU216HW,2013-09-07 02:59:00,
2013-09-06 23:00:00,69.0,60.7,29.85,North,0,0.0,0.0,77,0.00,,,0.00,WUHU216HW,2013-09-07 03:00:00,
2013-09-06 23:01:00,74.8,52.6,29.93,North,0,0.0,0.0,46,0.00,,,0.00,WUHU216HW,2013-09-07 03:01:00,
2013-09-06 23:02:00,74.8,52.6,29.93,NE,45,0.0,0.0,47,0.00,,,0.00,WUHU216HW,2013-09-07 03:02:00,
2013-09-06 23:03:00,74.8,52.6,29.93,NE,45,0.0,0.0,47,0.00,,,0.00,WUHU216HW,2013-09-07 03:03:00,
2013-09-06 23:04:00,74.8,52.6,29.93,North,0,0.0,0.0,46,0.00,,,0.00,WUHU216HW,2013-09-07 03:04:00,
2013-09-06 23:05:00,68.9,61.3,29.85,North,0,0.0,0.0,77,0.00,,,0.00,WUHU216HW,2013-09-07 03:05:00,
2013-09-06 23:06:00,74.8,52.6,29.93,North,0,0.0,0.0,46,0.00,,,0.00,WUHU216HW,2013-09-07 03:06:00,
2013-09-06 23:07:00,74.8,52.6,29.92,NNW,338,0.0,0.0,46,0.00,,,0.00,WUHU216HW,2013-09-07 03:07:00,
2013-09-06 23:08:00,74.8,52.6,29.92,NE,45,0.0,0.0,46,0.00,,,0.00,WUHU216HW,2013-09-07 03:08:00,
2013-09-06 23:09:00,74.8,52.6,29.92,NE,45,0.0,0.0,46,0.00,,,0.00,WUHU216HW,2013-09-07 03:09:00,
2013-09-06 23:10:00,68.9,61.3,29.85,North,0,0.0,0.0,78,0.00,,,0.00,WUHU216HW,2013-09-07 03:10:00,
2013-09-06 23:11:00,74.4,52.8,29.93,North,0,0.0,0.0,47,0.00,,,0.00,WUHU216HW,2013-09-07 03:11:00,
2013-09-06 23:12:00,74.4,52.8,29.93,North,0,0.0,0.0,47,0.00,,,0.00,WUHU216HW,2013-09-07 03:12:00,
2013-09-06 23:13:00,74.4,52.8,29.93,North,0,0.0,0.0,47,0.00,,,0.00,WUHU216HW,2013-09-07 03:13:00,
2013-09-06 23:14:00,74.4,52.8,29.92,North,0,0.0,0.0,47,0.00,,,0.00,WUHU216HW,2013-09-07 03:14:00,
2013-09-06 23:15:00,68.7,61.5,29.85,North,0,0.0,0.0,79,0.00,,,0.00,WUHU216HW,2013-09-07 03:15:00,
2013-09-06 23:16:00,74.3,52.6,29.93,NNW,338,0.0,0.0,47,0.00,,,0.00,WUHU216HW,2013-09-07 03:16:00,
2013-09-06 23:17:00,74.1,51.9,29.93,North,0,0.0,0.0,46,0.00,,,0.00,WUHU216HW,2013-09-07 03:17:00,
2013-09-06 23:18:00,74.1,51.9,29.93,North,0,0.0,0.0,46,0.00,,,0.00,WUHU216HW,2013-09-07 03:18:00,
2013-09-06 23:19:00,74.3,52.6,29.93,NW,315,0.0,0.0,47,0.00,,,0.00,WUHU216HW,2013-09-07 03:19:00,
2013-09-06 23:20:00,68.7,61.5,29.85,North,0,0.0,0.0,79,0.00,,,0.00,WUHU216HW,2013-09-07 03:20:00,
2013-09-06 23:21:00,74.3,52.6,29.93,NW,315,0.0,0.0,47,0.00,,,0.00,WUHU216HW,2013-09-07 03:21:00,
2013-09-06 23:22:00,73.9,51.7,29.93,NW,315,0.0,0.0,46,0.00,,,0.00,WUHU216HW,2013-09-07 03:22:00,
2013-09-06 23:23:00,73.7,52.1,29.92,NW,315,0.0,0.0,47,0.00,,,0.00,WUHU216HW,2013-09-07 03:23:00,
2013-09-06 23:24:00,73.7,52.1,29.92,NW,315,0.0,0.0,47,0.00,,,0.00,WUHU216HW,2013-09-07 03:24:00,
2013-09-06 23:25:00,68.5,62.1,29.84,North,0,0.0,0.0,79,0.00,,,0.00,WUHU216HW,2013-09-07 03:25:00,
2013-09-06 23:26:00,73.7,52.1,29.92,WNW,293,0.0,0.0,47,0.00,,,0.00,WUHU216HW,2013-09-07 03:26:00,
2013-09-06 23:30:00,68.5,62.1,29.84,North,0,0.0,0.0,80,0.00,,,0.00,WUHU216HW,2013-09-07 03:30:00,
2013-09-06 23:31:00,73.9,52.3,29.92,WNW,293,0.0,0.0,47,0.00,,,0.00,WUHU216HW,2013-09-07 03:31:00,
2013-09-06 23:32:00,73.7,52.7,29.92,NNW,338,0.0,0.0,48,0.00,,,0.00,WUHU216HW,2013-09-07 03:32:00,
2013-09-06 23:33:00,73.7,52.7,29.92,NNW,338,0.0,0.0,48,0.00,,,0.00,WUHU216HW,2013-09-07 03:33:00,
2013-09-06 23:34:00,73.9,51.1,29.92,NNW,338,0.0,0.0,45,0.00,,,0.00,WUHU216HW,2013-09-07 03:34:00,
2013-09-06 23:35:00,68.3,62.0,29.84,North,0,0.0,0.0,80,0.00,,,0.00,WUHU216HW,2013-09-07 03:35:00,
2013-09-06 23:36:00,73.9,51.1,29.92,NNW,338,0.0,0.0,45,0.00,,,0.00,WUHU216HW,2013-09-07 03:36:00,
2013-09-06 23:37:00,73.9,51.1,29.92,NW,315,0.0,0.0,44,0.00,,,0.00,WUHU216HW,2013-09-07 03:37:00,
2013-09-06 23:38:00,73.9,51.1,29.92,NW,315,0.0,0.0,46,0.00,,,0.00,WUHU216HW,2013-09-07 03:38:00,
2013-09-06 23:39:00,73.9,51.1,29.91,NW,315,0.0,0.0,46,0.00,,,0.00,WUHU216HW,2013-09-07 03:39:00,
2013-09-06 23:40:00,68.3,62.0,29.85,North,0,0.0,0.0,81,0.00,,,0.00,WUHU216HW,2013-09-07 03:40:00,
2013-09-06 23:43:00,73.9,52.3,29.92,SE,135,0.0,0.0,47,0.00,,,0.00,WUHU216HW,2013-09-07 03:43:00,
2013-09-06 23:44:00,73.9,52.3,29.92,SE,135,0.0,0.0,47,0.00,,,0.00,WUHU216HW,2013-09-07 03:44:00,
2013-09-06 23:45:00,68.1,62.1,29.85,North,0,0.0,0.0,81,0.00,,,0.00,WUHU216HW,2013-09-07 03:45:00,
2013-09-06 23:46:00,73.7,52.1,29.92,SE,135,0.0,0.0,47,0.00,,,0.00,WUHU216HW,2013-09-07 03:46:00,
2013-09-06 23:50:00,68.1,62.1,29.85,North,0,0.0,0.0,81,0.00,,,0.00,WUHU216HW,2013-09-07 03:50:00,
2013-09-06 23:55:00,68.0,62.3,29.85,North,0,0.0,0.0,82,0.00,,,0.00,WUHU216HW,2013-09-07 03:55:00,